Observation data for Fort McKavett on 12/09/2018      Previous  Date       Current Mesonet Observations  Soil Data  Daily Summary Page  Observations in Plain Language
KMC1 090600Z 33003KT 03/01 A3032 RMK A01 T00250010  RH  090%=      5-min Rain = 0
KMC1 090601Z 33002KT 02/01 A3032 RMK A01 T00240010  RH  090%=      5-min Rain = 0
KMC1 090602Z 33004KT 02/01 A3032 RMK A01 T00240010  RH  090%=      5-min Rain = 0
KMC1 090603Z 34004KT 02/01 A3032 RMK A01 T00240010  RH  090%=      5-min Rain = 0
KMC1 090604Z 34003KT 02/01 A3032 RMK A01 T00240009  RH  090%=      5-min Rain = 0
KMC1 090605Z 34003KT 02/01 A3032 RMK A01 T00230009  RH  090%=      5-min Rain = 0
KMC1 090606Z 35003KT 02/01 A3032 RMK A01 T00230009  RH  090%=      5-min Rain = 0
KMC1 090607Z 34003KT 02/01 A3032 RMK A01 T00220008  RH  090%=      5-min Rain = 0
KMC1 090608Z 34003KT 02/01 A3032 RMK A01 T00220008  RH  091%=      5-min Rain = 0
KMC1 090609Z 33003KT 02/01 A3032 RMK A01 T00210008  RH  091%=      5-min Rain = 0
KMC1 090610Z 33003KT 02/01 A3032 RMK A01 T00210008  RH  091%=      5-min Rain = 0
KMC1 090611Z 33003KT 02/01 A3032 RMK A01 T00200008  RH  091%=      5-min Rain = 0
KMC1 090612Z 32002KT 02/01 A3032 RMK A01 T00200008  RH  092%=      5-min Rain = 0
KMC1 090613Z 31003KT 02/01 A3032 RMK A01 T00200008  RH  092%=      5-min Rain = 0
KMC1 090614Z 31003KT 02/01 A3032 RMK A01 T00200008  RH  092%=      5-min Rain = 0
KMC1 090615Z 31003KT 02/01 A3032 RMK A01 T00190008  RH  092%=      5-min Rain = 0
KMC1 090616Z 32003KT 02/01 A3032 RMK A01 T00190008  RH  092%=      5-min Rain = 0
KMC1 090617Z 32003KT 02/01 A3032 RMK A01 T00180007  RH  092%=      5-min Rain = 0
KMC1 090618Z 32003KT 02/01 A3031 RMK A01 T00180007  RH  093%=      5-min Rain = 0
KMC1 090619Z 34002KT 02/01 A3031 RMK A01 T00170007  RH  093%=      5-min Rain = 0
KMC1 090620Z 33003KT 02/01 A3031 RMK A01 T00170007  RH  093%=      5-min Rain = 0
KMC1 090621Z 33002KT 02/01 A3031 RMK A01 T00170007  RH  093%=      5-min Rain = 0
KMC1 090622Z 34002KT 02/01 A3031 RMK A01 T00170007  RH  093%=      5-min Rain = 0
KMC1 090623Z 32002KT 02/01 A3031 RMK A01 T00170007  RH  093%=      5-min Rain = 0
KMC1 090624Z 33002KT 02/01 A3031 RMK A01 T00160007  RH  093%=      5-min Rain = 0
KMC1 090625Z 33003KT 02/01 A3031 RMK A01 T00160007  RH  094%=      5-min Rain = 0
KMC1 090626Z 33002KT 02/01 A3031 RMK A01 T00160007  RH  094%=      5-min Rain = 0
KMC1 090627Z 33002KT 02/01 A3031 RMK A01 T00160007  RH  093%=      5-min Rain = 0
KMC1 090628Z 33002KT 02/01 A3031 RMK A01 T00160007  RH  094%=      5-min Rain = 0
KMC1 090629Z 33002KT 02/01 A3031 RMK A01 T00160007  RH  094%=      5-min Rain = 0
KMC1 090630Z 33002KT 02/01 A3031 RMK A01 T00160007  RH  094%=      5-min Rain = 0
KMC1 090631Z 33003KT 02/01 A3031 RMK A01 T00160007  RH  094%=      5-min Rain = 0
KMC1 090632Z 32003KT 02/01 A3031 RMK A01 T00160007  RH  094%=      5-min Rain = 0
KMC1 090633Z 32003KT 02/01 A3031 RMK A01 T00160007  RH  094%=      5-min Rain = 0
KMC1 090634Z 32003KT 02/01 A3031 RMK A01 T00160007  RH  094%=      5-min Rain = 0
KMC1 090635Z 32003KT 02/01 A3031 RMK A01 T00150007  RH  094%=      5-min Rain = 0
KMC1 090636Z 32003KT 02/01 A3031 RMK A01 T00150006  RH  094%=      5-min Rain = 0
KMC1 090637Z 32003KT 02/01 A3031 RMK A01 T00150006  RH  094%=      5-min Rain = 0
KMC1 090638Z 32003KT 01/01 A3031 RMK A01 T00140006  RH  094%=      5-min Rain = 0
KMC1 090639Z 32003KT 01/01 A3031 RMK A01 T00140006  RH  094%=      5-min Rain = 0
KMC1 090640Z 33003KT 01/01 A3031 RMK A01 T00140006  RH  094%=      5-min Rain = 0
KMC1 090641Z 33003KT 01/01 A3031 RMK A01 T00140006  RH  095%=      5-min Rain = 0
KMC1 090642Z 33003KT 01/01 A3031 RMK A01 T00140006  RH  095%=      5-min Rain = 0
KMC1 090643Z 33003KT 01/01 A3031 RMK A01 T00140006  RH  095%=      5-min Rain = 0
KMC1 090644Z 33003KT 01/01 A3031 RMK A01 T00140006  RH  095%=      5-min Rain = 0
KMC1 090645Z 33003KT 01/01 A3031 RMK A01 T00140006  RH  095%=      5-min Rain = 0
KMC1 090646Z 33003KT 01/01 A3031 RMK A01 T00130006  RH  095%=      5-min Rain = 0
KMC1 090647Z 33003KT 01/01 A3031 RMK A01 T00140006  RH  095%=      5-min Rain = 0
KMC1 090648Z 33003KT 01/01 A3031 RMK A01 T00130006  RH  095%=      5-min Rain = 0
KMC1 090649Z 32003KT 01/01 A3031 RMK A01 T00140006  RH  095%=      5-min Rain = 0
KMC1 090650Z 32003KT 01/01 A3031 RMK A01 T00140006  RH  095%=      5-min Rain = 0
KMC1 090651Z 32003KT 01/01 A3031 RMK A01 T00130006  RH  095%=      5-min Rain = 0
KMC1 090652Z 32003KT 01/01 A3031 RMK A01 T00130006  RH  095%=      5-min Rain = 0
KMC1 090653Z 31003KT 01/01 A3031 RMK A01 T00130005  RH  095%=      5-min Rain = 0
KMC1 090654Z 30003KT 01/01 A3031 RMK A01 T00130006  RH  095%=      5-min Rain = 0
KMC1 090655Z 29002KT 01/01 A3031 RMK A01 T00120005  RH  095%=      5-min Rain = 0
KMC1 090656Z 29003KT 01/00 A3031 RMK A01 T00110004  RH  095%=      5-min Rain = 0
KMC1 090657Z 28003KT 01/00 A3031 RMK A01 T00100003  RH  095%=      5-min Rain = 0
KMC1 090658Z 28003KT 01/00 A3031 RMK A01 T00090003  RH  095%=      5-min Rain = 0
KMC1 090659Z 27003KT 01/00 A3031 RMK A01 T00080002  RH  095%=      5-min Rain = 0
KMC1 090700Z 27003KT 01/00 A3031 RMK A01 T00080002  RH  096%=      5-min Rain = 0
KMC1 090701Z 27003KT 01/00 A3031 RMK A01 T00070001  RH  096%=      5-min Rain = 0
KMC1 090702Z 27003KT 01/00 A3031 RMK A01 T00060001  RH  096%=      5-min Rain = 0
KMC1 090703Z 27003KT 01/00 A3031 RMK A01 T00060001  RH  097%=      5-min Rain = 0
KMC1 090704Z 26002KT 01/00 A3031 RMK A01 T00060001  RH  097%=      5-min Rain = 0
KMC1 090705Z 26002KT 01/00 A3031 RMK A01 T00060002  RH  097%=      5-min Rain = 0
KMC1 090706Z 26002KT 01/00 A3031 RMK A01 T00050001  RH  097%=      5-min Rain = 0
KMC1 090707Z 26003KT 01/00 A3031 RMK A01 T00050001  RH  097%=      5-min Rain = 0
KMC1 090708Z 26003KT 01/00 A3031 RMK A01 T00050002  RH  098%=      5-min Rain = 0
KMC1 090709Z 26003KT 01/00 A3031 RMK A01 T00050001  RH  098%=      5-min Rain = 0
KMC1 090710Z 26003KT 00/00 A3031 RMK A01 T00040001  RH  098%=      5-min Rain = 0
KMC1 090711Z 26004KT 00/00 A3031 RMK A01 T00040001  RH  098%=      5-min Rain = 0
KMC1 090712Z 26004KT 00/00 A3031 RMK A01 T00040001  RH  098%=      5-min Rain = 0
KMC1 090713Z 26004KT 00/00 A3031 RMK A01 T00030001  RH  098%=      5-min Rain = 0
KMC1 090714Z 27004KT 00/00 A3031 RMK A01 T00040001  RH  098%=      5-min Rain = 0
KMC1 090715Z 27004KT 00/00 A3031 RMK A01 T00040002  RH  099%=      5-min Rain = 0
KMC1 090716Z 27003KT 00/00 A3031 RMK A01 T00030001  RH  099%=      5-min Rain = 0
KMC1 090717Z 26003KT 00/00 A3031 RMK A01 T00030002  RH  099%=      5-min Rain = 0
KMC1 090718Z 27003KT 00/00 A3031 RMK A01 T00030002  RH  099%=      5-min Rain = 0
KMC1 090719Z 27003KT 00/00 A3031 RMK A01 T00030002  RH  099%=      5-min Rain = 0
KMC1 090720Z 27003KT 00/00 A3031 RMK A01 T00030002  RH  099%=      5-min Rain = 0
KMC1 090721Z 27002KT 00/00 A3031 RMK A01 T00030001  RH  099%=      5-min Rain = 0
KMC1 090722Z 28002KT 00/00 A3031 RMK A01 T00020001  RH  099%=      5-min Rain = 0
KMC1 090723Z 28002KT 00/00 A3031 RMK A01 T00020001  RH  099%=      5-min Rain = 0
KMC1 090724Z 28002KT 00/00 A3031 RMK A01 T00020001  RH  099%=      5-min Rain = 0
KMC1 090725Z 28002KT 00/00 A3031 RMK A01 T000200-0  RH  099%=      5-min Rain = 0
KMC1 090726Z 29002KT 00/00 A3031 RMK A01 T000100-0  RH  099%=      5-min Rain = 0
KMC1 090727Z 28002KT 00/00 A3031 RMK A01 T000100-0  RH  099%=      5-min Rain = 0
KMC1 090728Z 28002KT 00/00 A3031 RMK A01 T000100-0  RH  099%=      5-min Rain = 0
KMC1 090729Z 28002KT 00/00 A3031 RMK A01 T000100-0  RH  099%=      5-min Rain = 0
KMC1 090730Z 28002KT 00/00 A3031 RMK A01 T00010000  RH  099%=      5-min Rain = 0
KMC1 090731Z 29002KT 00/00 A3031 RMK A01 T00010000  RH  099%=      5-min Rain = 0
KMC1 090732Z 29002KT 00/00 A3031 RMK A01 T00020001  RH  099%=      5-min Rain = 0
KMC1 090733Z 29002KT 00/00 A3031 RMK A01 T00020001  RH  099%=      5-min Rain = 0
KMC1 090734Z 29003KT 00/00 A3031 RMK A01 T00030002  RH  100%=      5-min Rain = 0
KMC1 090735Z 29002KT 00/00 A3031 RMK A01 T00030002  RH  100%=      5-min Rain = 0
KMC1 090736Z 29003KT 00/00 A3031 RMK A01 T00020002  RH  100%=      5-min Rain = 0
KMC1 090737Z 28003KT 00/00 A3031 RMK A01 T00020001  RH  100%=      5-min Rain = 0
KMC1 090738Z 28003KT 00/00 A3031 RMK A01 T00020001  RH  099%=      5-min Rain = 0
KMC1 090739Z 28003KT 00/00 A3031 RMK A01 T00020001  RH  099%=      5-min Rain = 0
KMC1 090740Z 28003KT 00/00 A3031 RMK A01 T00010001  RH  100%=      5-min Rain = 0
KMC1 090741Z 28003KT 00/00 A3031 RMK A01 T00010000  RH  100%=      5-min Rain = 0
KMC1 090742Z 29003KT 00/00 A3031 RMK A01 T000100-0  RH  099%=      5-min Rain = 0
KMC1 090743Z 28002KT 00/00 A3031 RMK A01 T000000-1  RH  099%=      5-min Rain = 0
KMC1 090744Z 28003KT 00/00 A3031 RMK A01 T00-000-1  RH  099%=      5-min Rain = 0
KMC1 090745Z 28003KT M00/M00 A3031 RMK A01 T10011001  RH  099%=      5-min Rain = 0
KMC1 090746Z 28003KT M00/M00 A3031 RMK A01 T10011002  RH  099%=      5-min Rain = 0
KMC1 090747Z 27003KT M00/M00 A3031 RMK A01 T10011001  RH  100%=      5-min Rain = 0
KMC1 090748Z 26002KT 00/00 A3031 RMK A01 T00-000-1  RH  100%=      5-min Rain = 0
KMC1 090749Z 26002KT 00/00 A3031 RMK A01 T00-000-1  RH  100%=      5-min Rain = 0
KMC1 090750Z 26003KT 00/00 A3031 RMK A01 T00-000-1  RH  100%=      5-min Rain = 0
KMC1 090751Z 26002KT 00/00 A303 RMK A01 T000000-0  RH  100%=      5-min Rain = 0
KMC1 090752Z 27002KT 00/00 A303 RMK A01 T00-000-1  RH  100%=      5-min Rain = 0
KMC1 090753Z 27002KT 00/00 A303 RMK A01 T00-000-1  RH  100%=      5-min Rain = 0
KMC1 090754Z 27002KT 00/00 A303 RMK A01 T00-000-1  RH  100%=      5-min Rain = 0
KMC1 090755Z 27002KT 00/00 A303 RMK A01 T000000-0  RH  100%=      5-min Rain = 0
KMC1 090756Z 27002KT 00/00 A303 RMK A01 T000000-0  RH  100%=      5-min Rain = 0
KMC1 090757Z 27002KT 00/00 A303 RMK A01 T00000000  RH  100%=      5-min Rain = 0
KMC1 090758Z 27001KT 00/00 A303 RMK A01 T000000-0  RH  100%=      5-min Rain = 0
KMC1 090759Z 27001KT 00/00 A303 RMK A01 T000000-0  RH  100%=      5-min Rain = 0
KMC1 090800Z 27001KT 00/00 A303 RMK A01 T00000000  RH  100%=      5-min Rain = 0
KMC1 090801Z 27001KT 00/00 A303 RMK A01 T00000000  RH  100%=      5-min Rain = 0
KMC1 090802Z 27001KT 00/00 A303 RMK A01 T000000-0  RH  100%=      5-min Rain = 0
KMC1 090803Z 29001KT 00/00 A303 RMK A01 T000000-0  RH  100%=      5-min Rain = 0
KMC1 090804Z 29001KT 00/00 A303 RMK A01 T00000000  RH  100%=      5-min Rain = 0
KMC1 090805Z 29001KT 00/00 A303 RMK A01 T000000-0  RH  100%=      5-min Rain = 0
KMC1 090806Z 29002KT 00/00 A303 RMK A01 T00-000-0  RH  100%=      5-min Rain = 0
KMC1 090807Z 28002KT 00/00 A303 RMK A01 T00-000-1  RH  100%=      5-min Rain = 0
KMC1 090808Z 29002KT 00/00 A303 RMK A01 T00-000-1  RH  100%=      5-min Rain = 0
KMC1 090809Z 29002KT M00/M00 A303 RMK A01 T10011001  RH  100%=      5-min Rain = 0
KMC1 090810Z 29002KT M00/M00 A303 RMK A01 T10011001  RH  100%=      5-min Rain = 0
KMC1 090811Z 30002KT M00/M00 A303 RMK A01 T10021002  RH  100%=      5-min Rain = 0
KMC1 090812Z 31002KT M00/M00 A303 RMK A01 T10021002  RH  100%=      5-min Rain = 0
KMC1 090813Z 31002KT M00/M00 A303 RMK A01 T10011001  RH  100%=      5-min Rain = 0
KMC1 090814Z 31002KT 00/00 A303 RMK A01 T000000-0  RH  100%=      5-min Rain = 0
KMC1 090815Z 31003KT 00/00 A303 RMK A01 T00-000-0  RH  100%=      5-min Rain = 0
KMC1 090816Z 31003KT 00/00 A303 RMK A01 T00000000  RH  100%=      5-min Rain = 0
KMC1 090817Z 31003KT 00/00 A303 RMK A01 T00000000  RH  100%=      5-min Rain = 0
KMC1 090818Z 30003KT 00/00 A303 RMK A01 T00000000  RH  100%=      5-min Rain = 0
KMC1 090819Z 30003KT 00/00 A303 RMK A01 T00000000  RH  100%=      5-min Rain = 0
KMC1 090820Z 31002KT 00/00 A303 RMK A01 T00000000  RH  100%=      5-min Rain = 0
KMC1 090821Z 31003KT 00/00 A3029 RMK A01 T00-000-0  RH  100%=      5-min Rain = 0
KMC1 090822Z 31002KT M00/M00 A3029 RMK A01 T10011001  RH  100%=      5-min Rain = 0
KMC1 090823Z 32002KT M00/M00 A3029 RMK A01 T10011001  RH  100%=      5-min Rain = 0
KMC1 090824Z 33002KT M00/M00 A3029 RMK A01 T10011001  RH  100%=      5-min Rain = 0
KMC1 090825Z 33002KT M00/M00 A3029 RMK A01 T10011001  RH  100%=      5-min Rain = 0
KMC1 090826Z 33002KT 00/00 A3029 RMK A01 T00000000  RH  100%=      5-min Rain = 0
KMC1 090827Z 34002KT 00/00 A3029 RMK A01 T00010001  RH  100%=      5-min Rain = 0
KMC1 090828Z 34002KT 00/00 A3029 RMK A01 T00010001  RH  100%=      5-min Rain = 0
KMC1 090829Z 34002KT 00/00 A3029 RMK A01 T00010001  RH  100%=      5-min Rain = 0
KMC1 090830Z 35002KT 00/00 A3029 RMK A01 T00010001  RH  100%=      5-min Rain = 0
KMC1 090831Z 35002KT 00/00 A3029 RMK A01 T00020001  RH  100%=      5-min Rain = 0
KMC1 090832Z 35002KT 00/00 A3029 RMK A01 T00020001  RH  100%=      5-min Rain = 0
KMC1 090833Z 33003KT 00/00 A3029 RMK A01 T00020002  RH  100%=      5-min Rain = 0
KMC1 090834Z 34003KT 00/00 A3029 RMK A01 T00010001  RH  100%=      5-min Rain = 0
KMC1 090835Z 34002KT 00/00 A3029 RMK A01 T00010001  RH  100%=      5-min Rain = 0
KMC1 090836Z 34002KT 00/00 A3029 RMK A01 T00010001  RH  100%=      5-min Rain = 0
KMC1 090837Z 33003KT 00/00 A3029 RMK A01 T00010001  RH  100%=      5-min Rain = 0
KMC1 090838Z 33003KT 00/00 A3029 RMK A01 T00010001  RH  100%=      5-min Rain = 0
KMC1 090839Z 32003KT 00/00 A3029 RMK A01 T00010001  RH  100%=      5-min Rain = 0
KMC1 090840Z 32002KT 00/00 A3029 RMK A01 T00010001  RH  100%=      5-min Rain = 0
KMC1 090841Z 32002KT 00/00 A3029 RMK A01 T00010001  RH  100%=      5-min Rain = 0
KMC1 090842Z 31002KT 00/00 A3029 RMK A01 T000000-0  RH  100%=      5-min Rain = 0
KMC1 090843Z 31002KT M00/M00 A3029 RMK A01 T10011001  RH  100%=      5-min Rain = 0
KMC1 090844Z 32002KT M00/M00 A3029 RMK A01 T10021003  RH  100%=      5-min Rain = 0
KMC1 090845Z 32002KT M00/M00 A3029 RMK A01 T10031003  RH  100%=      5-min Rain = 0
KMC1 090846Z 32002KT M00/M00 A3029 RMK A01 T10031003  RH  100%=      5-min Rain = 0
KMC1 090847Z 31002KT M00/M00 A3029 RMK A01 T10041004  RH  100%=      5-min Rain = 0
KMC1 090848Z 31002KT M00/M00 A3029 RMK A01 T10041004  RH  100%=      5-min Rain = 0
KMC1 090849Z 31002KT M00/M00 A3029 RMK A01 T10041004  RH  100%=      5-min Rain = 0
KMC1 090850Z 30002KT M00/M00 A3029 RMK A01 T10041004  RH  100%=      5-min Rain = 0
KMC1 090851Z 30002KT M01/M01 A3029 RMK A01 T10051005  RH  100%=      5-min Rain = 0
KMC1 090852Z 29003KT M01/M01 A3029 RMK A01 T10061006  RH  100%=      5-min Rain = 0
KMC1 090853Z 30002KT M01/M01 A3029 RMK A01 T10061007  RH  100%=      5-min Rain = 0
KMC1 090854Z 30003KT M01/M01 A3029 RMK A01 T10071007  RH  100%=      5-min Rain = 0
KMC1 090855Z 30002KT M01/M01 A3029 RMK A01 T10071007  RH  100%=      5-min Rain = 0
KMC1 090856Z 30002KT M01/M01 A3029 RMK A01 T10071008  RH  100%=      5-min Rain = 0
KMC1 090857Z 30002KT M01/M01 A3029 RMK A01 T10081008  RH  100%=      5-min Rain = 0
KMC1 090858Z 30002KT M01/M01 A3029 RMK A01 T10081008  RH  100%=      5-min Rain = 0
KMC1 090859Z 30002KT M01/M01 A3029 RMK A01 T10081009  RH  100%=      5-min Rain = 0
KMC1 090900Z 31002KT M01/M01 A3029 RMK A01 T10091009  RH  100%=      5-min Rain = 0
KMC1 090901Z 31002KT M01/M01 A3029 RMK A01 T10091009  RH  100%=      5-min Rain = 0
KMC1 090902Z 31002KT M01/M01 A3029 RMK A01 T10091009  RH  100%=      5-min Rain = 0
KMC1 090903Z 32001KT M01/M01 A3029 RMK A01 T10091010  RH  100%=      5-min Rain = 0
KMC1 090904Z 32001KT M01/M01 A3029 RMK A01 T10091009  RH  100%=      5-min Rain = 0
KMC1 090905Z 33002KT M01/M01 A3029 RMK A01 T10081008  RH  100%=      5-min Rain = 0
KMC1 090906Z 33002KT M01/M01 A3029 RMK A01 T10071008  RH  100%=      5-min Rain = 0
KMC1 090907Z 32002KT M01/M01 A3029 RMK A01 T10071007  RH  100%=      5-min Rain = 0
KMC1 090908Z 33002KT M01/M01 A3029 RMK A01 T10071007  RH  100%=      5-min Rain = 0
KMC1 090909Z 33002KT M01/M01 A3029 RMK A01 T10071007  RH  100%=      5-min Rain = 0
KMC1 090910Z 34001KT M01/M01 A3029 RMK A01 T10061006  RH  100%=      5-min Rain = 0
KMC1 090911Z 34002KT M01/M01 A3029 RMK A01 T10051005  RH  100%=      5-min Rain = 0
KMC1 090912Z 34002KT M00/M00 A3029 RMK A01 T10041004  RH  100%=      5-min Rain = 0
KMC1 090913Z 34002KT M00/M00 A3028 RMK A01 T10031003  RH  100%=      5-min Rain = 0
KMC1 090914Z 34002KT M00/M00 A3028 RMK A01 T10031003  RH  100%=      5-min Rain = 0
KMC1 090915Z 34002KT M00/M00 A3028 RMK A01 T10021002  RH  100%=      5-min Rain = 0
KMC1 090916Z 35002KT M00/M00 A3029 RMK A01 T10021002  RH  100%=      5-min Rain = 0
KMC1 090917Z 35002KT M00/M00 A3029 RMK A01 T10021002  RH  100%=      5-min Rain = 0
KMC1 090918Z 35002KT M00/M00 A3029 RMK A01 T10021002  RH  100%=      5-min Rain = 0
KMC1 090919Z 35002KT M00/M00 A3029 RMK A01 T10021002  RH  100%=      5-min Rain = 0
KMC1 090920Z 35002KT M00/M00 A3029 RMK A01 T10021002  RH  100%=      5-min Rain = 0
KMC1 090921Z 34002KT M00/M00 A3029 RMK A01 T10021002  RH  100%=      5-min Rain = 0
KMC1 090922Z 34002KT M00/M00 A3029 RMK A01 T10021002  RH  100%=      5-min Rain = 0
KMC1 090923Z 34003KT M00/M00 A3029 RMK A01 T10021002  RH  100%=      5-min Rain = 0
KMC1 090924Z 35003KT M00/M00 A3029 RMK A01 T10011001  RH  100%=      5-min Rain = 0
KMC1 090925Z 35003KT M00/M00 A3029 RMK A01 T10011001  RH  100%=      5-min Rain = 0
KMC1 090926Z 35003KT M00/M00 A3029 RMK A01 T10011001  RH  100%=      5-min Rain = 0
KMC1 090927Z 34003KT M00/M00 A3029 RMK A01 T10011001  RH  100%=      5-min Rain = 0
KMC1 090928Z 34003KT M00/M00 A3029 RMK A01 T10021002  RH  100%=      5-min Rain = 0
KMC1 090929Z 34003KT M00/M00 A3029 RMK A01 T10021002  RH  100%=      5-min Rain = 0
KMC1 090930Z 34003KT M00/M00 A3029 RMK A01 T10021002  RH  100%=      5-min Rain = 0
KMC1 090931Z 34003KT M00/M00 A3029 RMK A01 T10021003  RH  100%=      5-min Rain = 0
KMC1 090932Z 34002KT M00/M00 A3029 RMK A01 T10031003  RH  100%=      5-min Rain = 0
KMC1 090933Z 35002KT M00/M00 A3029 RMK A01 T10031003  RH  100%=      5-min Rain = 0
KMC1 090934Z 34002KT M00/M00 A3029 RMK A01 T10031003  RH  100%=      5-min Rain = 0
KMC1 090935Z 34002KT M00/M00 A3029 RMK A01 T10031003  RH  100%=      5-min Rain = 0
KMC1 090936Z 33002KT M00/M00 A3029 RMK A01 T10031003  RH  100%=      5-min Rain = 0
KMC1 090937Z 33002KT M00/M00 A3029 RMK A01 T10031003  RH  100%=      5-min Rain = 0
KMC1 090938Z 33002KT M00/M00 A3029 RMK A01 T10031003  RH  100%=      5-min Rain = 0
KMC1 090939Z 33002KT M00/M00 A3029 RMK A01 T10031003  RH  100%=      5-min Rain = 0
KMC1 090940Z 33002KT M00/M00 A3029 RMK A01 T10031003  RH  100%=      5-min Rain = 0
KMC1 090941Z 32002KT M00/M00 A3029 RMK A01 T10041004  RH  100%=      5-min Rain = 0
KMC1 090942Z 32002KT M00/M00 A3029 RMK A01 T10041004  RH  100%=      5-min Rain = 0
KMC1 090943Z 32002KT M01/M01 A3029 RMK A01 T10051005  RH  100%=      5-min Rain = 0
KMC1 090944Z 32001KT M01/M01 A3029 RMK A01 T10051006  RH  100%=      5-min Rain = 0
KMC1 090945Z 32001KT M01/M01 A3029 RMK A01 T10061006  RH  100%=      5-min Rain = 0
KMC1 090946Z 32001KT M01/M01 A3029 RMK A01 T10061006  RH  100%=      5-min Rain = 0
KMC1 090947Z 32001KT M01/M01 A3029 RMK A01 T10071007  RH  100%=      5-min Rain = 0
KMC1 090948Z 31001KT M01/M01 A3029 RMK A01 T10071007  RH  100%=      5-min Rain = 0
KMC1 090949Z 30001KT M01/M01 A3029 RMK A01 T10071008  RH  100%=      5-min Rain = 0
KMC1 090950Z 30001KT M01/M01 A3029 RMK A01 T10081008  RH  100%=      5-min Rain = 0
KMC1 090951Z 30001KT M01/M01 A3029 RMK A01 T10091009  RH  100%=      5-min Rain = 0
KMC1 090952Z 29001KT M01/M01 A3029 RMK A01 T10091009  RH  100%=      5-min Rain = 0
KMC1 090953Z 29001KT M01/M01 A3029 RMK A01 T10091009  RH  100%=      5-min Rain = 0
KMC1 090954Z 28001KT M01/M01 A3029 RMK A01 T10101010  RH  100%=      5-min Rain = 0
KMC1 090955Z 28001KT M01/M01 A3029 RMK A01 T10101011  RH  100%=      5-min Rain = 0
KMC1 090956Z 28001KT M01/M01 A3029 RMK A01 T10111011  RH  100%=      5-min Rain = 0
KMC1 090957Z 28001KT M01/M01 A3029 RMK A01 T10111011  RH  100%=      5-min Rain = 0
KMC1 090958Z 28001KT M01/M01 A3029 RMK A01 T10111011  RH  100%=      5-min Rain = 0
KMC1 090959Z 29001KT M01/M01 A3029 RMK A01 T10111011  RH  100%=      5-min Rain = 0
KMC1 091000Z 29001KT M01/M01 A3029 RMK A01 T10111011  RH  100%=      5-min Rain = 0
KMC1 091001Z 31001KT M01/M01 A3029 RMK A01 T10111011  RH  100%=      5-min Rain = 0
KMC1 091002Z 32001KT M01/M01 A3029 RMK A01 T10111012  RH  100%=      5-min Rain = 0
KMC1 091003Z 32001KT M01/M01 A3029 RMK A01 T10111012  RH  100%=      5-min Rain = 0
KMC1 091004Z 32001KT M01/M01 A3029 RMK A01 T10111011  RH  100%=      5-min Rain = 0
KMC1 091005Z 32001KT M01/M01 A3029 RMK A01 T10111011  RH  100%=      5-min Rain = 0
KMC1 091006Z 32001KT M01/M01 A3029 RMK A01 T10111011  RH  100%=      5-min Rain = 0
KMC1 091007Z 32001KT M01/M01 A3029 RMK A01 T10111011  RH  100%=      5-min Rain = 0
KMC1 091008Z 32001KT M01/M01 A3029 RMK A01 T10111011  RH  100%=      5-min Rain = 0
KMC1 091009Z 32001KT M01/M01 A3029 RMK A01 T10111011  RH  100%=      5-min Rain = 0
KMC1 091010Z 32001KT M01/M01 A3029 RMK A01 T10111012  RH  100%=      5-min Rain = 0
KMC1 091011Z 32001KT M01/M01 A3029 RMK A01 T10121013  RH  100%=      5-min Rain = 0
KMC1 091012Z 32001KT M01/M01 A3029 RMK A01 T10121013  RH  100%=      5-min Rain = 0
KMC1 091013Z 32001KT M01/M01 A3029 RMK A01 T10131013  RH  100%=      5-min Rain = 0
KMC1 091014Z 32001KT M01/M01 A3029 RMK A01 T10131013  RH  100%=      5-min Rain = 0
KMC1 091015Z 32001KT M01/M01 A3029 RMK A01 T10141014  RH  100%=      5-min Rain = 0
KMC1 091016Z 32001KT M01/M01 A3029 RMK A01 T10141014  RH  100%=      5-min Rain = 0
KMC1 091017Z 32001KT M01/M01 A3029 RMK A01 T10141014  RH  100%=      5-min Rain = 0
KMC1 091018Z 32001KT M01/M01 A3029 RMK A01 T10141014  RH  100%=      5-min Rain = 0
KMC1 091019Z 32002KT M01/M01 A3029 RMK A01 T10141014  RH  100%=      5-min Rain = 0
KMC1 091020Z 32002KT M01/M01 A3029 RMK A01 T10141014  RH  100%=      5-min Rain = 0
KMC1 091021Z 32002KT M01/M01 A3029 RMK A01 T10141014  RH  100%=      5-min Rain = 0
KMC1 091022Z 31002KT M01/M01 A3029 RMK A01 T10141014  RH  100%=      5-min Rain = 0
KMC1 091023Z 31002KT M01/M01 A3029 RMK A01 T10131014  RH  100%=      5-min Rain = 0
KMC1 091024Z 31002KT M01/M01 A3029 RMK A01 T10141014  RH  100%=      5-min Rain = 0
KMC1 091025Z 31002KT M01/M01 A3029 RMK A01 T10141014  RH  100%=      5-min Rain = 0
KMC1 091026Z 30002KT M02/M02 A3029 RMK A01 T10151015  RH  100%=      5-min Rain = 0
KMC1 091027Z 30002KT M02/M02 A3029 RMK A01 T10151015  RH  100%=      5-min Rain = 0
KMC1 091028Z 30002KT M02/M02 A3029 RMK A01 T10151015  RH  100%=      5-min Rain = 0
KMC1 091029Z 29002KT M02/M02 A3029 RMK A01 T10161016  RH  100%=      5-min Rain = 0
KMC1 091030Z 29002KT M02/M02 A303 RMK A01 T10161016  RH  100%=      5-min Rain = 0
KMC1 091031Z 29002KT M02/M02 A303 RMK A01 T10161016  RH  100%=      5-min Rain = 0
KMC1 091032Z 29002KT M02/M02 A303 RMK A01 T10161016  RH  100%=      5-min Rain = 0
KMC1 091033Z 29001KT M02/M02 A303 RMK A01 T10161016  RH  100%=      5-min Rain = 0
KMC1 091034Z 29001KT M02/M02 A303 RMK A01 T10161016  RH  100%=      5-min Rain = 0
KMC1 091035Z 29001KT M02/M02 A303 RMK A01 T10161016  RH  100%=      5-min Rain = 0
KMC1 091036Z 29001KT M02/M02 A303 RMK A01 T10151015  RH  100%=      5-min Rain = 0
KMC1 091037Z 29001KT M01/M01 A3029 RMK A01 T10141014  RH  100%=      5-min Rain = 0
KMC1 091038Z 29001KT M01/M01 A3029 RMK A01 T10141014  RH  100%=      5-min Rain = 0
KMC1 091039Z 29001KT M01/M01 A303 RMK A01 T10131013  RH  100%=      5-min Rain = 0
KMC1 091040Z 29001KT M01/M01 A303 RMK A01 T10131013  RH  100%=      5-min Rain = 0
KMC1 091041Z 29001KT M01/M01 A303 RMK A01 T10131013  RH  100%=      5-min Rain = 0
KMC1 091042Z 29001KT M01/M01 A303 RMK A01 T10131013  RH  100%=      5-min Rain = 0
KMC1 091043Z 29001KT M01/M01 A303 RMK A01 T10131013  RH  100%=      5-min Rain = 0
KMC1 091044Z 29001KT M01/M01 A303 RMK A01 T10131014  RH  100%=      5-min Rain = 0
KMC1 091045Z 29000KT M01/M01 A303 RMK A01 T10131014  RH  100%=      5-min Rain = 0
KMC1 091046Z 00000KT M01/M01 A303 RMK A01 T10141014  RH  100%=      5-min Rain = 0
KMC1 091047Z 00000KT M01/M01 A303 RMK A01 T10141014  RH  100%=      5-min Rain = 0
KMC1 091048Z 00000KT M01/M01 A303 RMK A01 T10141014  RH  100%=      5-min Rain = 0
KMC1 091049Z 00000KT M01/M01 A303 RMK A01 T10141014  RH  100%=      5-min Rain = 0
KMC1 091050Z 29000KT M01/M01 A303 RMK A01 T10141014  RH  100%=      5-min Rain = 0
KMC1 091051Z 29001KT M01/M01 A303 RMK A01 T10141014  RH  100%=      5-min Rain = 0
KMC1 091052Z 29001KT M01/M01 A303 RMK A01 T10141014  RH  100%=      5-min Rain = 0
KMC1 091053Z 29001KT M01/M01 A303 RMK A01 T10131014  RH  100%=      5-min Rain = 0
KMC1 091054Z 29001KT M01/M01 A303 RMK A01 T10141014  RH  100%=      5-min Rain = 0
KMC1 091055Z 30001KT M01/M01 A303 RMK A01 T10131013  RH  100%=      5-min Rain = 0
KMC1 091056Z 30001KT M01/M01 A303 RMK A01 T10131013  RH  100%=      5-min Rain = 0
KMC1 091057Z 30001KT M01/M01 A303 RMK A01 T10121013  RH  100%=      5-min Rain = 0
KMC1 091058Z 31001KT M01/M01 A303 RMK A01 T10131013  RH  100%=      5-min Rain = 0
KMC1 091059Z 31002KT M01/M01 A303 RMK A01 T10121013  RH  100%=      5-min Rain = 0
KMC1 091100Z 32002KT M01/M01 A303 RMK A01 T10131013  RH  100%=      5-min Rain = 0
KMC1 091101Z 33002KT M01/M01 A303 RMK A01 T10121013  RH  100%=      5-min Rain = 0
KMC1 091102Z 33002KT M01/M01 A303 RMK A01 T10121013  RH  100%=      5-min Rain = 0
KMC1 091103Z 32003KT M01/M01 A303 RMK A01 T10121012  RH  100%=      5-min Rain = 0
KMC1 091104Z 32003KT M01/M01 A303 RMK A01 T10121012  RH  100%=      5-min Rain = 0
KMC1 091105Z 32003KT M01/M01 A303 RMK A01 T10121012  RH  100%=      5-min Rain = 0
KMC1 091106Z 32003KT M01/M01 A303 RMK A01 T10121012  RH  100%=      5-min Rain = 0
KMC1 091107Z 32003KT M01/M01 A303 RMK A01 T10131013  RH  100%=      5-min Rain = 0
KMC1 091108Z 32003KT M01/M01 A303 RMK A01 T10131013  RH  100%=      5-min Rain = 0
KMC1 091109Z 32003KT M01/M01 A303 RMK A01 T10141014  RH  100%=      5-min Rain = 0
KMC1 091110Z 32003KT M01/M01 A303 RMK A01 T10141014  RH  100%=      5-min Rain = 0
KMC1 091111Z 32003KT M01/M02 A303 RMK A01 T10141015  RH  100%=      5-min Rain = 0
KMC1 091112Z 32003KT M01/M02 A303 RMK A01 T10141015  RH  100%=      5-min Rain = 0
KMC1 091113Z 32003KT M02/M02 A303 RMK A01 T10151015  RH  100%=      5-min Rain = 0
KMC1 091114Z 32003KT M01/M01 A303 RMK A01 T10141014  RH  100%=      5-min Rain = 0
KMC1 091115Z 32003KT M01/M01 A303 RMK A01 T10141014  RH  100%=      5-min Rain = 0
KMC1 091116Z 32003KT M01/M02 A303 RMK A01 T10141015  RH  100%=      5-min Rain = 0
KMC1 091117Z 32003KT M02/M02 A303 RMK A01 T10151015  RH  100%=      5-min Rain = 0
KMC1 091118Z 31003KT M02/M02 A303 RMK A01 T10151015  RH  100%=      5-min Rain = 0
KMC1 091119Z 31003KT M02/M02 A303 RMK A01 T10151015  RH  100%=      5-min Rain = 0
KMC1 091120Z 31003KT M02/M02 A303 RMK A01 T10151015  RH  100%=      5-min Rain = 0
KMC1 091121Z 31003KT M02/M02 A303 RMK A01 T10151015  RH  100%=      5-min Rain = 0
KMC1 091122Z 31003KT M02/M02 A303 RMK A01 T10151015  RH  100%=      5-min Rain = 0
KMC1 091123Z 31003KT M02/M02 A303 RMK A01 T10151015  RH  100%=      5-min Rain = 0
KMC1 091124Z 31003KT M02/M02 A303 RMK A01 T10151015  RH  100%=      5-min Rain = 0
KMC1 091125Z 30003KT M02/M02 A303 RMK A01 T10151016  RH  100%=      5-min Rain = 0
KMC1 091126Z 30003KT M02/M02 A303 RMK A01 T10161016  RH  100%=      5-min Rain = 0
KMC1 091127Z 30003KT M02/M02 A303 RMK A01 T10161016  RH  100%=      5-min Rain = 0
KMC1 091128Z 30003KT M02/M02 A303 RMK A01 T10161016  RH  100%=      5-min Rain = 0
KMC1 091129Z 30003KT M02/M02 A303 RMK A01 T10161016  RH  100%=      5-min Rain = 0
KMC1 091130Z 30003KT M02/M02 A303 RMK A01 T10161017  RH  100%=      5-min Rain = 0
KMC1 091131Z 30003KT M02/M02 A3031 RMK A01 T10171017  RH  100%=      5-min Rain = 0
KMC1 091132Z 30003KT M02/M02 A3031 RMK A01 T10161017  RH  100%=      5-min Rain = 0
KMC1 091133Z 30003KT M02/M02 A3031 RMK A01 T10161016  RH  100%=      5-min Rain = 0
KMC1 091134Z 30003KT M02/M02 A3031 RMK A01 T10151016  RH  100%=      5-min Rain = 0
KMC1 091135Z 30003KT M02/M02 A3031 RMK A01 T10161016  RH  100%=      5-min Rain = 0
KMC1 091136Z 30002KT M02/M02 A3031 RMK A01 T10161016  RH  100%=      5-min Rain = 0
KMC1 091137Z 29002KT M02/M02 A3031 RMK A01 T10161016  RH  100%=      5-min Rain = 0
KMC1 091138Z 29002KT M02/M02 A3031 RMK A01 T10161016  RH  100%=      5-min Rain = 0
KMC1 091139Z 30002KT M02/M02 A3031 RMK A01 T10161016  RH  100%=      5-min Rain = 0
KMC1 091140Z 30002KT M02/M02 A3031 RMK A01 T10161016  RH  100%=      5-min Rain = 0
KMC1 091141Z 30002KT M02/M02 A3031 RMK A01 T10161016  RH  100%=      5-min Rain = 0
KMC1 091142Z 30003KT M02/M02 A3031 RMK A01 T10161017  RH  100%=      5-min Rain = 0
KMC1 091143Z 30003KT M02/M02 A3031 RMK A01 T10161017  RH  100%=      5-min Rain = 0
KMC1 091144Z 30003KT M02/M02 A3031 RMK A01 T10161017  RH  100%=      5-min Rain = 0
KMC1 091145Z 30003KT M02/M02 A3031 RMK A01 T10161016  RH  100%=      5-min Rain = 0
KMC1 091146Z 30003KT M02/M02 A3031 RMK A01 T10161016  RH  100%=      5-min Rain = 0
KMC1 091147Z 30003KT M02/M02 A3031 RMK A01 T10151016  RH  100%=      5-min Rain = 0
KMC1 091148Z 30003KT M02/M02 A3031 RMK A01 T10151015  RH  100%=      5-min Rain = 0
KMC1 091149Z 30003KT M02/M02 A3031 RMK A01 T10151015  RH  100%=      5-min Rain = 0
KMC1 091150Z 30003KT M02/M02 A3031 RMK A01 T10151016  RH  100%=      5-min Rain = 0
KMC1 091151Z 30003KT M02/M02 A3031 RMK A01 T10151016  RH  100%=      5-min Rain = 0
KMC1 091152Z 30003KT M02/M02 A3031 RMK A01 T10161016  RH  100%=      5-min Rain = 0
KMC1 091153Z 30003KT M02/M02 A3031 RMK A01 T10161016  RH  100%=      5-min Rain = 0
KMC1 091154Z 30004KT M02/M02 A3031 RMK A01 T10161016  RH  100%=      5-min Rain = 0
KMC1 091155Z 30003KT M02/M02 A3031 RMK A01 T10161016  RH  100%=      5-min Rain = 0
KMC1 091156Z 30003KT M02/M02 A3031 RMK A01 T10161016  RH  100%=      5-min Rain = 0
KMC1 091157Z 30003KT M02/M02 A3031 RMK A01 T10171017  RH  100%=      5-min Rain = 0
KMC1 091158Z 30003KT M02/M02 A3031 RMK A01 T10171017  RH  100%=      5-min Rain = 0
KMC1 091159Z 30003KT M02/M02 A3031 RMK A01 T10171017  RH  100%=      5-min Rain = 0
KMC1 091200Z 31004KT M02/M02 A3031 RMK A01 T10171017  RH  100%=      5-min Rain = 0
KMC1 091201Z 30004KT M02/M02 A3031 RMK A01 T10171017  RH  100%=      5-min Rain = 0
KMC1 091202Z 31004KT M02/M02 A3031 RMK A01 T10171017  RH  100%=      5-min Rain = 0
KMC1 091203Z 30004KT M02/M02 A3031 RMK A01 T10171017  RH  100%=      5-min Rain = 0
KMC1 091204Z 31004KT M02/M02 A3031 RMK A01 T10171017  RH  100%=      5-min Rain = 0
KMC1 091205Z 30004KT M02/M02 A3031 RMK A01 T10161016  RH  100%=      5-min Rain = 0
KMC1 091206Z 31004KT M02/M02 A3031 RMK A01 T10161016  RH  100%=      5-min Rain = 0
KMC1 091207Z 31004KT M02/M02 A3031 RMK A01 T10161016  RH  100%=      5-min Rain = 0
KMC1 091208Z 31004KT M02/M02 A3031 RMK A01 T10151015  RH  100%=      5-min Rain = 0
KMC1 091209Z 31004KT M02/M02 A3031 RMK A01 T10151015  RH  100%=      5-min Rain = 0
KMC1 091210Z 31005KT M01/M01 A3031 RMK A01 T10141014  RH  100%=      5-min Rain = 0
KMC1 091211Z 31004KT M01/M01 A3031 RMK A01 T10141014  RH  100%=      5-min Rain = 0
KMC1 091212Z 31005KT M01/M01 A3031 RMK A01 T10131014  RH  100%=      5-min Rain = 0
KMC1 091213Z 31004KT M01/M01 A3031 RMK A01 T10131013  RH  100%=      5-min Rain = 0
KMC1 091214Z 31005KT M01/M01 A3031 RMK A01 T10131013  RH  100%=      5-min Rain = 0
KMC1 091215Z 31004KT M01/M01 A3031 RMK A01 T10131013  RH  100%=      5-min Rain = 0
KMC1 091216Z 30004KT M01/M01 A3031 RMK A01 T10131013  RH  100%=      5-min Rain = 0
KMC1 091217Z 30004KT M01/M01 A3031 RMK A01 T10131013  RH  100%=      5-min Rain = 0
KMC1 091218Z 30004KT M01/M01 A3031 RMK A01 T10131013  RH  100%=      5-min Rain = 0
KMC1 091219Z 30004KT M01/M01 A3031 RMK A01 T10131013  RH  100%=      5-min Rain = 0
KMC1 091220Z 30004KT M01/M01 A3031 RMK A01 T10141014  RH  100%=      5-min Rain = 0
KMC1 091221Z 30005KT M01/M01 A3031 RMK A01 T10141014  RH  100%=      5-min Rain = 0
KMC1 091222Z 31004KT M01/M01 A3031 RMK A01 T10131014  RH  100%=      5-min Rain = 0
KMC1 091223Z 31004KT M01/M01 A3031 RMK A01 T10141014  RH  100%=      5-min Rain = 0
KMC1 091224Z 31004KT M01/M01 A3031 RMK A01 T10131014  RH  100%=      5-min Rain = 0
KMC1 091225Z 31004KT M01/M01 A3031 RMK A01 T10131014  RH  100%=      5-min Rain = 0
KMC1 091226Z 31004KT M01/M01 A3031 RMK A01 T10131013  RH  100%=      5-min Rain = 0
KMC1 091227Z 31004KT M01/M01 A3031 RMK A01 T10141014  RH  100%=      5-min Rain = 0
KMC1 091228Z 31004KT M01/M01 A3032 RMK A01 T10141014  RH  100%=      5-min Rain = 0
KMC1 091229Z 31004KT M01/M01 A3032 RMK A01 T10131014  RH  100%=      5-min Rain = 0
KMC1 091230Z 31004KT M01/M01 A3032 RMK A01 T10131013  RH  100%=      5-min Rain = 0
KMC1 091231Z 31004KT M01/M01 A3032 RMK A01 T10131013  RH  100%=      5-min Rain = 0
KMC1 091232Z 31004KT M01/M01 A3032 RMK A01 T10131013  RH  100%=      5-min Rain = 0
KMC1 091233Z 31003KT M01/M01 A3032 RMK A01 T10131013  RH  100%=      5-min Rain = 0
KMC1 091234Z 31004KT M01/M01 A3032 RMK A01 T10131013  RH  100%=      5-min Rain = 0
KMC1 091235Z 31004KT M01/M01 A3032 RMK A01 T10131013  RH  100%=      5-min Rain = 0
KMC1 091236Z 31003KT M01/M01 A3032 RMK A01 T10131013  RH  100%=      5-min Rain = 0
KMC1 091237Z 31004KT M01/M01 A3032 RMK A01 T10131013  RH  100%=      5-min Rain = 0
KMC1 091238Z 31004KT M01/M01 A3032 RMK A01 T10131013  RH  100%=      5-min Rain = 0
KMC1 091239Z 31004KT M01/M01 A3032 RMK A01 T10131013  RH  100%=      5-min Rain = 0
KMC1 091240Z 31004KT M01/M01 A3032 RMK A01 T10131014  RH  100%=      5-min Rain = 0
KMC1 091241Z 31004KT M01/M01 A3032 RMK A01 T10141014  RH  100%=      5-min Rain = 0
KMC1 091242Z 31004KT M01/M01 A3032 RMK A01 T10141014  RH  100%=      5-min Rain = 0
KMC1 091243Z 31004KT M01/M01 A3032 RMK A01 T10141014  RH  100%=      5-min Rain = 0
KMC1 091244Z 31004KT M01/M01 A3032 RMK A01 T10141014  RH  100%=      5-min Rain = 0
KMC1 091245Z 32004KT M01/M01 A3032 RMK A01 T10141014  RH  100%=      5-min Rain = 0
KMC1 091246Z 32004KT M01/M01 A3032 RMK A01 T10141014  RH  100%=      5-min Rain = 0
KMC1 091247Z 32004KT M01/M01 A3032 RMK A01 T10141014  RH  100%=      5-min Rain = 0
KMC1 091248Z 32003KT M01/M01 A3032 RMK A01 T10131014  RH  100%=      5-min Rain = 0
KMC1 091249Z 32004KT M01/M01 A3032 RMK A01 T10131014  RH  100%=      5-min Rain = 0
KMC1 091250Z 33004KT M01/M01 A3032 RMK A01 T10131013  RH  100%=      5-min Rain = 0
KMC1 091251Z 32004KT M01/M01 A3032 RMK A01 T10121012  RH  100%=      5-min Rain = 0
KMC1 091252Z 32004KT M01/M01 A3032 RMK A01 T10121012  RH  100%=      5-min Rain = 0
KMC1 091253Z 32005KT M01/M01 A3032 RMK A01 T10121012  RH  100%=      5-min Rain = 0
KMC1 091254Z 32003KT M01/M01 A3032 RMK A01 T10111011  RH  100%=      5-min Rain = 0
KMC1 091255Z 33004KT M01/M01 A3032 RMK A01 T10111011  RH  100%=      5-min Rain = 0
KMC1 091256Z 33004KT M01/M01 A3032 RMK A01 T10111011  RH  100%=      5-min Rain = 0
KMC1 091257Z 33004KT M01/M01 A3032 RMK A01 T10101010  RH  100%=      5-min Rain = 0
KMC1 091258Z 33004KT M01/M01 A3032 RMK A01 T10101010  RH  100%=      5-min Rain = 0
KMC1 091259Z 33003KT M01/M01 A3032 RMK A01 T10091009  RH  100%=      5-min Rain = 0
KMC1 091300Z 33004KT M01/M01 A3032 RMK A01 T10091009  RH  100%=      5-min Rain = 0
KMC1 091301Z 33004KT M01/M01 A3032 RMK A01 T10101010  RH  100%=      5-min Rain = 0
KMC1 091302Z 33004KT M01/M01 A3032 RMK A01 T10101010  RH  100%=      5-min Rain = 0
KMC1 091303Z 33004KT M01/M01 A3032 RMK A01 T10101010  RH  100%=      5-min Rain = 0
KMC1 091304Z 33003KT M01/M01 A3032 RMK A01 T10101010  RH  100%=      5-min Rain = 0
KMC1 091305Z 33003KT M01/M01 A3033 RMK A01 T10111011  RH  100%=      5-min Rain = 0
KMC1 091306Z 33003KT M01/M01 A3033 RMK A01 T10111011  RH  100%=      5-min Rain = 0
KMC1 091307Z 33003KT M01/M01 A3033 RMK A01 T10111011  RH  100%=      5-min Rain = 0
KMC1 091308Z 33003KT M01/M01 A3033 RMK A01 T10111011  RH  100%=      5-min Rain = 0
KMC1 091309Z 34003KT M01/M01 A3033 RMK A01 T10111011  RH  100%=      5-min Rain = 0
KMC1 091310Z 34002KT M01/M01 A3033 RMK A01 T10111011  RH  100%=      5-min Rain = 0
KMC1 091311Z 34002KT M01/M01 A3033 RMK A01 T10111011  RH  100%=      5-min Rain = 0
KMC1 091312Z 34002KT M01/M01 A3033 RMK A01 T10111011  RH  100%=      5-min Rain = 0
KMC1 091313Z 35002KT M01/M01 A3033 RMK A01 T10111012  RH  100%=      5-min Rain = 0
KMC1 091314Z 36003KT M01/M01 A3033 RMK A01 T10111011  RH  099%=      5-min Rain = 0
KMC1 091315Z 00003KT M01/M01 A3033 RMK A01 T10111012  RH  099%=      5-min Rain = 0
KMC1 091316Z 01002KT M01/M01 A3033 RMK A01 T10111012  RH  099%=      5-min Rain = 0
KMC1 091317Z 01003KT M01/M01 A3033 RMK A01 T10111012  RH  099%=      5-min Rain = 0
KMC1 091318Z 01003KT M01/M01 A3033 RMK A01 T10111012  RH  099%=      5-min Rain = 0
KMC1 091319Z 01003KT M01/M01 A3033 RMK A01 T10121013  RH  099%=      5-min Rain = 0
KMC1 091320Z 01003KT M01/M01 A3033 RMK A01 T10121013  RH  099%=      5-min Rain = 0
KMC1 091321Z 01003KT M01/M01 A3033 RMK A01 T10121013  RH  099%=      5-min Rain = 0
KMC1 091322Z 00003KT M01/M01 A3033 RMK A01 T10121014  RH  099%=      5-min Rain = 0
KMC1 091323Z 36003KT M01/M01 A3033 RMK A01 T10131014  RH  099%=      5-min Rain = 0
KMC1 091324Z 35003KT M01/M01 A3033 RMK A01 T10131014  RH  099%=      5-min Rain = 0
KMC1 091325Z 35003KT M01/M02 A3033 RMK A01 T10131015  RH  099%=      5-min Rain = 0
KMC1 091326Z 35003KT M01/M01 A3033 RMK A01 T10131014  RH  099%=      5-min Rain = 0
KMC1 091327Z 35002KT M01/M02 A3033 RMK A01 T10131015  RH  099%=      5-min Rain = 0
KMC1 091328Z 35002KT M01/M02 A3033 RMK A01 T10131015  RH  099%=      5-min Rain = 0
KMC1 091329Z 34002KT M01/M02 A3033 RMK A01 T10141015  RH  099%=      5-min Rain = 0
KMC1 091330Z 34002KT M01/M02 A3033 RMK A01 T10141015  RH  099%=      5-min Rain = 0
KMC1 091331Z 34002KT M01/M02 A3034 RMK A01 T10131015  RH  099%=      5-min Rain = 0
KMC1 091332Z 34003KT M01/M02 A3034 RMK A01 T10141015  RH  099%=      5-min Rain = 0
KMC1 091333Z 33003KT M01/M02 A3034 RMK A01 T10131015  RH  099%=      5-min Rain = 0
KMC1 091334Z 33002KT M01/M01 A3034 RMK A01 T10131014  RH  099%=      5-min Rain = 0
KMC1 091335Z 33003KT M01/M01 A3034 RMK A01 T10131014  RH  099%=      5-min Rain = 0
KMC1 091336Z 33003KT M01/M01 A3034 RMK A01 T10121014  RH  099%=      5-min Rain = 0
KMC1 091337Z 32002KT M01/M01 A3034 RMK A01 T10121014  RH  099%=      5-min Rain = 0
KMC1 091338Z 32003KT M01/M01 A3034 RMK A01 T10121014  RH  099%=      5-min Rain = 0
KMC1 091339Z 32003KT M01/M01 A3034 RMK A01 T10131014  RH  099%=      5-min Rain = 0
KMC1 091340Z 31002KT M01/M01 A3034 RMK A01 T10131014  RH  099%=      5-min Rain = 0
KMC1 091341Z 32002KT M01/M01 A3034 RMK A01 T10121014  RH  099%=      5-min Rain = 0
KMC1 091342Z 31002KT M01/M01 A3034 RMK A01 T10131014  RH  099%=      5-min Rain = 0
KMC1 091343Z 32002KT M01/M01 A3034 RMK A01 T10131014  RH  099%=      5-min Rain = 0
KMC1 091344Z 32002KT M01/M01 A3034 RMK A01 T10121014  RH  099%=      5-min Rain = 0
KMC1 091345Z 32002KT M01/M01 A3034 RMK A01 T10121014  RH  099%=      5-min Rain = 0
KMC1 091346Z 32002KT M01/M01 A3034 RMK A01 T10131014  RH  099%=      5-min Rain = 0
KMC1 091347Z 32002KT M01/M01 A3034 RMK A01 T10121014  RH  099%=      5-min Rain = 0
KMC1 091348Z 33002KT M01/M01 A3034 RMK A01 T10131014  RH  099%=      5-min Rain = 0
KMC1 091349Z 32002KT M01/M01 A3034 RMK A01 T10121014  RH  099%=      5-min Rain = 0
KMC1 091350Z 33002KT M01/M01 A3034 RMK A01 T10121014  RH  099%=      5-min Rain = 0
KMC1 091351Z 33002KT M01/M01 A3035 RMK A01 T10121013  RH  099%=      5-min Rain = 0
KMC1 091352Z 33002KT M01/M01 A3035 RMK A01 T10121013  RH  099%=      5-min Rain = 0
KMC1 091353Z 33002KT M01/M01 A3035 RMK A01 T10111013  RH  099%=      5-min Rain = 0
KMC1 091354Z 33002KT M01/M01 A3035 RMK A01 T10101012  RH  099%=      5-min Rain = 0
KMC1 091355Z 33002KT M01/M01 A3035 RMK A01 T10101012  RH  099%=      5-min Rain = 0
KMC1 091356Z 34002KT M01/M01 A3035 RMK A01 T10101012  RH  099%=      5-min Rain = 0
KMC1 091357Z 34002KT M01/M01 A3035 RMK A01 T10091011  RH  098%=      5-min Rain = 0
KMC1 091358Z 34002KT M01/M01 A3035 RMK A01 T10091011  RH  098%=      5-min Rain = 0
KMC1 091359Z 33003KT M01/M01 A3035 RMK A01 T10081011  RH  098%=      5-min Rain = 0
KMC1 091400Z 34002KT M01/M01 A3035 RMK A01 T10081011  RH  098%=      5-min Rain = 0
KMC1 091401Z 33002KT M01/M01 A3035 RMK A01 T10081011  RH  098%=      5-min Rain = 0
KMC1 091402Z 33002KT M01/M01 A3035 RMK A01 T10071010  RH  098%=      5-min Rain = 0
KMC1 091403Z 32002KT M01/M01 A3035 RMK A01 T10061010  RH  097%=      5-min Rain = 0
KMC1 091404Z 31002KT M01/M01 A3035 RMK A01 T10061010  RH  097%=      5-min Rain = 0
KMC1 091405Z 30002KT M01/M01 A3036 RMK A01 T10051009  RH  097%=      5-min Rain = 0
KMC1 091406Z 31002KT M00/M01 A3036 RMK A01 T10041009  RH  097%=      5-min Rain = 0
KMC1 091407Z 30002KT M00/M01 A3036 RMK A01 T10041009  RH  097%=      5-min Rain = 0
KMC1 091408Z 30002KT M00/M01 A3036 RMK A01 T10041009  RH  096%=      5-min Rain = 0
KMC1 091409Z 29002KT M00/M01 A3036 RMK A01 T10031009  RH  096%=      5-min Rain = 0
KMC1 091410Z 31002KT M00/M01 A3036 RMK A01 T10031008  RH  096%=      5-min Rain = 0
KMC1 091411Z 30002KT M00/M01 A3036 RMK A01 T10031009  RH  096%=      5-min Rain = 0
KMC1 091412Z 30002KT M00/M01 A3036 RMK A01 T10021008  RH  096%=      5-min Rain = 0
KMC1 091413Z 30002KT M00/M01 A3036 RMK A01 T10021009  RH  096%=      5-min Rain = 0
KMC1 091414Z 31002KT M00/M01 A3036 RMK A01 T10021008  RH  095%=      5-min Rain = 0
KMC1 091415Z 31002KT M00/M01 A3036 RMK A01 T10021008  RH  095%=      5-min Rain = 0
KMC1 091416Z 32002KT M00/M01 A3036 RMK A01 T10011008  RH  095%=      5-min Rain = 0
KMC1 091417Z 32002KT M00/M01 A3036 RMK A01 T10011009  RH  095%=      5-min Rain = 0
KMC1 091418Z 33003KT M00/M01 A3036 RMK A01 T10011009  RH  095%=      5-min Rain = 0
KMC1 091419Z 32003KT M00/M01 A3036 RMK A01 T10021009  RH  094%=      5-min Rain = 0
KMC1 091420Z 33003KT M00/M01 A3036 RMK A01 T10011009  RH  094%=      5-min Rain = 0
KMC1 091421Z 33003KT M00/M01 A3036 RMK A01 T10011009  RH  094%=      5-min Rain = 0
KMC1 091422Z 32002KT 00/01 A3036 RMK A01 T00-000-8  RH  094%=      5-min Rain = 0
KMC1 091423Z 32002KT 00/01 A3036 RMK A01 T000000-8  RH  094%=      5-min Rain = 0
KMC1 091424Z 31002KT 00/M01 A3036 RMK A01 T00011007  RH  094%=      5-min Rain = 0
KMC1 091425Z 31002KT 00/M01 A3036 RMK A01 T00011007  RH  094%=      5-min Rain = 0
KMC1 091426Z 31003KT 00/M01 A3036 RMK A01 T00021006  RH  095%=      5-min Rain = 0
KMC1 091427Z 31003KT 00/M01 A3036 RMK A01 T00021006  RH  095%=      5-min Rain = 0
KMC1 091428Z 32004KT 00/M01 A3036 RMK A01 T00021006  RH  094%=      5-min Rain = 0
KMC1 091429Z 31002KT 00/M01 A3036 RMK A01 T00021006  RH  094%=      5-min Rain = 0
KMC1 091430Z 32002KT 00/M01 A3036 RMK A01 T00031006  RH  094%=      5-min Rain = 0
KMC1 091431Z 33004KT 00/M01 A3036 RMK A01 T00031007  RH  093%=      5-min Rain = 0
KMC1 091432Z 32004KT 00/M01 A3036 RMK A01 T00031008  RH  093%=      5-min Rain = 0
KMC1 091433Z 32004KT 00/M01 A3036 RMK A01 T00031009  RH  092%=      5-min Rain = 0
KMC1 091434Z 32003KT 00/M01 A3036 RMK A01 T00031009  RH  092%=      5-min Rain = 0
KMC1 091435Z 32004KT 00/M01 A3036 RMK A01 T00031007  RH  093%=      5-min Rain = 0
KMC1 091436Z 32004KT 00/M01 A3037 RMK A01 T00031007  RH  093%=      5-min Rain = 0
KMC1 091437Z 32003KT 00/M01 A3037 RMK A01 T00041007  RH  093%=      5-min Rain = 0
KMC1 091438Z 32003KT 00/M01 A3037 RMK A01 T00041006  RH  093%=      5-min Rain = 0
KMC1 091439Z 33005KT 00/M01 A3036 RMK A01 T00041006  RH  093%=      5-min Rain = 0
KMC1 091440Z 32005KT 00/M01 A3036 RMK A01 T00041006  RH  093%=      5-min Rain = 0
KMC1 091441Z 33004KT 01/M01 A3036 RMK A01 T00051006  RH  092%=      5-min Rain = 0
KMC1 091442Z 32003KT 01/M01 A3036 RMK A01 T00051006  RH  093%=      5-min Rain = 0
KMC1 091443Z 33005KT 01/M01 A3037 RMK A01 T00051005  RH  093%=      5-min Rain = 0
KMC1 091444Z 33004KT 01/M01 A3037 RMK A01 T00061006  RH  092%=      5-min Rain = 0
KMC1 091445Z 34005KT 01/M01 A3037 RMK A01 T00061005  RH  092%=      5-min Rain = 0
KMC1 091446Z 34006KT 01/M01 A3037 RMK A01 T00061006  RH  091%=      5-min Rain = 0
KMC1 091447Z 33006KT 01/M01 A3037 RMK A01 T00071007  RH  091%=      5-min Rain = 0
KMC1 091448Z 33005KT 01/M01 A3037 RMK A01 T00071007  RH  090%=      5-min Rain = 0
KMC1 091449Z 34004KT 01/M01 A3037 RMK A01 T00071007  RH  090%=      5-min Rain = 0
KMC1 091450Z 34004KT 01/M01 A3036 RMK A01 T00081006  RH  091%=      5-min Rain = 0
KMC1 091451Z 35004KT 01/M01 A3036 RMK A01 T00081006  RH  091%=      5-min Rain = 0
KMC1 091452Z 34006KT 01/M01 A3036 RMK A01 T00091005  RH  091%=      5-min Rain = 0
KMC1 091453Z 34005KT 01/M01 A3036 RMK A01 T00091005  RH  091%=      5-min Rain = 0
KMC1 091454Z 35005KT 01/M01 A3036 RMK A01 T00091005  RH  090%=      5-min Rain = 0
KMC1 091455Z 34004KT 01/M00 A3037 RMK A01 T00101004  RH  091%=      5-min Rain = 0
KMC1 091456Z 35005KT 01/M00 A3037 RMK A01 T00111002  RH  092%=      5-min Rain = 0
KMC1 091457Z 35005KT 01/M00 A3037 RMK A01 T00111002  RH  091%=      5-min Rain = 0
KMC1 091458Z 34006KT 01/M00 A3037 RMK A01 T00121002  RH  091%=      5-min Rain = 0
KMC1 091459Z 34005KT 01/M00 A3037 RMK A01 T00121002  RH  091%=      5-min Rain = 0
KMC1 091500Z 34005KT 01/M00 A3037 RMK A01 T00131003  RH  090%=      5-min Rain = 0
KMC1 091501Z 34006KT 01/M01 A3037 RMK A01 T00131005  RH  088%=      5-min Rain = 0
KMC1 091502Z 35009KT 01/M01 A3037 RMK A01 T00131006  RH  087%=      5-min Rain = 0
KMC1 091503Z 34007KT 01/M01 A3037 RMK A01 T00131007  RH  087%=      5-min Rain = 0
KMC1 091504Z 34006KT 01/M01 A3037 RMK A01 T00131007  RH  086%=      5-min Rain = 0
KMC1 091505Z 34006KT 01/M01 A3037 RMK A01 T00141008  RH  086%=      5-min Rain = 0
KMC1 091506Z 35007KT 01/M01 A3037 RMK A01 T00141006  RH  086%=      5-min Rain = 0
KMC1 091507Z 35007KT 02/M01 A3037 RMK A01 T00151006  RH  086%=      5-min Rain = 0
KMC1 091508Z 34006KT 02/M01 A3037 RMK A01 T00151006  RH  086%=      5-min Rain = 0
KMC1 091509Z 33006KT 02/M01 A3037 RMK A01 T00151005  RH  087%=      5-min Rain = 0
KMC1 091510Z 33006KT 02/M01 A3037 RMK A01 T00151005  RH  086%=      5-min Rain = 0
KMC1 091511Z 33005KT 02/M01 A3037 RMK A01 T00151007  RH  085%=      5-min Rain = 0
KMC1 091512Z 34005KT 02/M01 A3037 RMK A01 T00161005  RH  086%=      5-min Rain = 0
KMC1 091513Z 34005KT 02/M01 A3037 RMK A01 T00171005  RH  086%=      5-min Rain = 0
KMC1 091514Z 34008KT 02/M01 A3037 RMK A01 T00171006  RH  085%=      5-min Rain = 0
KMC1 091515Z 34007KT 02/M01 A3037 RMK A01 T00171008  RH  083%=      5-min Rain = 0
KMC1 091516Z 34008KT 02/M01 A3037 RMK A01 T00171007  RH  084%=      5-min Rain = 0
KMC1 091517Z 33005KT 02/M01 A3037 RMK A01 T00171009  RH  083%=      5-min Rain = 0
KMC1 091518Z 34005KT 02/M01 A3037 RMK A01 T00171008  RH  083%=      5-min Rain = 0
KMC1 091519Z 33006KT 02/M01 A3037 RMK A01 T00181008  RH  083%=      5-min Rain = 0
KMC1 091520Z 33007KT 02/M01 A3037 RMK A01 T00181012  RH  081%=      5-min Rain = 0
KMC1 091521Z 33007KT 02/M01 A3037 RMK A01 T00181013  RH  080%=      5-min Rain = 0
KMC1 091522Z 34005KT 02/M01 A3037 RMK A01 T00191010  RH  081%=      5-min Rain = 0
KMC1 091523Z 34005KT 02/M01 A3037 RMK A01 T00191008  RH  082%=      5-min Rain = 0
KMC1 091524Z 33005KT 02/M01 A3038 RMK A01 T00201008  RH  082%=      5-min Rain = 0
KMC1 091525Z 34006KT 02/M01 A3038 RMK A01 T00211007  RH  082%=      5-min Rain = 0
KMC1 091526Z 34005KT 02/M01 A3038 RMK A01 T00211011  RH  079%=      5-min Rain = 0
KMC1 091527Z 34005KT 02/M01 A3038 RMK A01 T00221011  RH  079%=      5-min Rain = 0
KMC1 091528Z 34007KT 02/M01 A3038 RMK A01 T00221011  RH  079%=      5-min Rain = 0
KMC1 091529Z 33006KT 02/M01 A3038 RMK A01 T00221012  RH  078%=      5-min Rain = 0
KMC1 091530Z 34007KT 02/M01 A3038 RMK A01 T00231012  RH  078%=      5-min Rain = 0
KMC1 091531Z 34007KT 02/M01 A3038 RMK A01 T00231014  RH  077%=      5-min Rain = 0
KMC1 091532Z 34008KT 02/M01 A3038 RMK A01 T00231014  RH  077%=      5-min Rain = 0
KMC1 091533Z 33007KT 02/M02 A3038 RMK A01 T00241015  RH  076%=      5-min Rain = 0
KMC1 091534Z 33007KT 02/M02 A3038 RMK A01 T00241015  RH  075%=      5-min Rain = 0
KMC1 091535Z 33004KT 03/M02 A3038 RMK A01 T00251015  RH  075%=      5-min Rain = 0
KMC1 091536Z 33006KT 03/M01 A3038 RMK A01 T00261011  RH  077%=      5-min Rain = 0
KMC1 091537Z 33005KT 03/M01 A3038 RMK A01 T00271012  RH  075%=      5-min Rain = 0
KMC1 091538Z 33005KT 03/M01 A3039 RMK A01 T00281011  RH  076%=      5-min Rain = 0
KMC1 091539Z 33006KT 03/M01 A3039 RMK A01 T00281013  RH  074%=      5-min Rain = 0
KMC1 091540Z 34009KT 03/M02 A3039 RMK A01 T00291016  RH  072%=      5-min Rain = 0
KMC1 091541Z 34008KT 03/M02 A3039 RMK A01 T00291020  RH  070%=      5-min Rain = 0
KMC1 091542Z 34008KT 03/M02 A3039 RMK A01 T00291022  RH  069%=      5-min Rain = 0
KMC1 091543Z 33006KT 03/M02 A3039 RMK A01 T00291018  RH  071%=      5-min Rain = 0
KMC1 091544Z 34005KT 03/M02 A3039 RMK A01 T00301017  RH  071%=      5-min Rain = 0
KMC1 091545Z 34006KT 03/M01 A3039 RMK A01 T00321013  RH  072%=      5-min Rain = 0
KMC1 091546Z 34008KT 03/M02 A3039 RMK A01 T00321017  RH  070%=      5-min Rain = 0
KMC1 091547Z 34007KT 03/M02 A3039 RMK A01 T00331017  RH  070%=      5-min Rain = 0
KMC1 091548Z 33007KT 03/M02 A3039 RMK A01 T00331022  RH  067%=      5-min Rain = 0
KMC1 091549Z 34006KT 03/M02 A3039 RMK A01 T00331022  RH  067%=      5-min Rain = 0
KMC1 091550Z 35006KT 03/M02 A3039 RMK A01 T00331023  RH  067%=      5-min Rain = 0
KMC1 091551Z 00007KT 03/M02 A3039 RMK A01 T00341018  RH  069%=      5-min Rain = 0
KMC1 091552Z 36006KT 04/M02 A3039 RMK A01 T00351015  RH  070%=      5-min Rain = 0
KMC1 091553Z 36006KT 04/M02 A3039 RMK A01 T00351021  RH  067%=      5-min Rain = 0
KMC1 091554Z 00008KT 04/M02 A3039 RMK A01 T00351023  RH  066%=      5-min Rain = 0
KMC1 091555Z 00008KT 04/M02 A3039 RMK A01 T00361024  RH  065%=      5-min Rain = 0
KMC1 091556Z 36007KT 04/M03 A3039 RMK A01 T00361026  RH  064%=      5-min Rain = 0
KMC1 091557Z 36007KT 04/M02 A3039 RMK A01 T00371023  RH  065%=      5-min Rain = 0
KMC1 091558Z 35007KT 04/M02 A3039 RMK A01 T00381021  RH  066%=      5-min Rain = 0
KMC1 091559Z 33005KT 04/M02 A3039 RMK A01 T00381017  RH  067%=      5-min Rain = 0
KMC1 091600Z 33004KT 04/M01 A3039 RMK A01 T00401012  RH  069%=      5-min Rain = 0
KMC1 091601Z 36004KT 04/M01 A3039 RMK A01 T00421011  RH  068%=      5-min Rain = 0
KMC1 091602Z 34006KT 04/M02 A3039 RMK A01 T00421018  RH  065%=      5-min Rain = 0
KMC1 091603Z 34008KT 04/M02 A3039 RMK A01 T00421020  RH  064%=      5-min Rain = 0
KMC1 091604Z 33008KT 04/M03 A3039 RMK A01 T00411025  RH  062%=      5-min Rain = 0
KMC1 091605Z 33008KT 04/M02 A3039 RMK A01 T00411024  RH  063%=      5-min Rain = 0
KMC1 091606Z 32007KT 04/M02 A3039 RMK A01 T00401024  RH  063%=      5-min Rain = 0
KMC1 091607Z 31007KT 04/M03 A3039 RMK A01 T00401026  RH  062%=      5-min Rain = 0
KMC1 091608Z 33007KT 04/M02 A3039 RMK A01 T00401023  RH  063%=      5-min Rain = 0
KMC1 091609Z 34008KT 04/M02 A3039 RMK A01 T00421021  RH  063%=      5-min Rain = 0
KMC1 091610Z 34009KT 04/M03 A3039 RMK A01 T00431027  RH  061%=      5-min Rain = 0
KMC1 091611Z 35006KT 04/M03 A3039 RMK A01 T00431028  RH  060%=      5-min Rain = 0
KMC1 091612Z 34008KT 04/M03 A3039 RMK A01 T00431030  RH  059%=      5-min Rain = 0
KMC1 091613Z 34007KT 04/M03 A3039 RMK A01 T00431028  RH  060%=      5-min Rain = 0
KMC1 091614Z 36007KT 04/M03 A3039 RMK A01 T00431027  RH  060%=      5-min Rain = 0
KMC1 091615Z 36011KT 05/M03 A3039 RMK A01 T00451025  RH  061%=      5-min Rain = 0
KMC1 091616Z 00009KT 05/M03 A3039 RMK A01 T00451034  RH  057%=      5-min Rain = 0
KMC1 091617Z 35009KT 04/M03 A3039 RMK A01 T00441034  RH  057%=      5-min Rain = 0
KMC1 091618Z 35007KT 04/M03 A3039 RMK A01 T00441031  RH  058%=      5-min Rain = 0
KMC1 091619Z 36009KT 05/M03 A3039 RMK A01 T00461030  RH  058%=      5-min Rain = 0
KMC1 091620Z 34009KT 05/M03 A3039 RMK A01 T00461033  RH  057%=      5-min Rain = 0
KMC1 091621Z 35006KT 05/M03 A304 RMK A01 T00461031  RH  057%=      5-min Rain = 0
KMC1 091622Z 34007KT 05/M03 A304 RMK A01 T00471026  RH  059%=      5-min Rain = 0
KMC1 091623Z 35009KT 05/M03 A304 RMK A01 T00491027  RH  058%=      5-min Rain = 0
KMC1 091624Z 35007KT 05/M03 A304 RMK A01 T00481032  RH  056%=      5-min Rain = 0
KMC1 091625Z 32007KT 05/M03 A304 RMK A01 T00471033  RH  056%=      5-min Rain = 0
KMC1 091626Z 33008KT 05/M03 A304 RMK A01 T00481032  RH  056%=      5-min Rain = 0
KMC1 091627Z 33006KT 05/M04 A304 RMK A01 T00481035  RH  055%=      5-min Rain = 0
KMC1 091628Z 33004KT 05/M03 A304 RMK A01 T00491029  RH  057%=      5-min Rain = 0
KMC1 091629Z 33010KT 05/M03 A304 RMK A01 T00511032  RH  055%=      5-min Rain = 0
KMC1 091630Z 35008KT 05/M04 A304 RMK A01 T00501042  RH  051%=      5-min Rain = 0
KMC1 091631Z 34007KT 05/M04 A304 RMK A01 T00491039  RH  053%=      5-min Rain = 0
KMC1 091632Z 34008KT 05/M04 A304 RMK A01 T00501038  RH  053%=      5-min Rain = 0
KMC1 091633Z 34008KT 05/M04 A304 RMK A01 T00501041  RH  052%=      5-min Rain = 0
KMC1 091634Z 33010KT 05/M04 A304 RMK A01 T00501043  RH  051%=      5-min Rain = 0
KMC1 091635Z 34009KT 05/M05 A304 RMK A01 T00491047  RH  050%=      5-min Rain = 0
KMC1 091636Z 34006KT 05/M05 A304 RMK A01 T00491045  RH  050%=      5-min Rain = 0
KMC1 091637Z 34010KT 05/M04 A304 RMK A01 T00501044  RH  051%=      5-min Rain = 0
KMC1 091638Z 35010KT 05/M04 A304 RMK A01 T00511043  RH  051%=      5-min Rain = 0
KMC1 091639Z 34009KT 05/M05 A304 RMK A01 T00511045  RH  050%=      5-min Rain = 0
KMC1 091640Z 34007KT 05/M05 A304 RMK A01 T00521047  RH  049%=      5-min Rain = 0
KMC1 091641Z 35007KT 05/M05 A304 RMK A01 T00521046  RH  049%=      5-min Rain = 0
KMC1 091642Z 35008KT 05/M04 A304 RMK A01 T00541041  RH  050%=      5-min Rain = 0
KMC1 091643Z 35008KT 06/M04 A304 RMK A01 T00561040  RH  050%=      5-min Rain = 0
KMC1 091644Z 35008KT 06/M04 A304 RMK A01 T00561038  RH  051%=      5-min Rain = 0
KMC1 091645Z 34008KT 06/M04 A304 RMK A01 T00561037  RH  051%=      5-min Rain = 0
KMC1 091646Z 33006KT 06/M03 A304 RMK A01 T00571034  RH  052%=      5-min Rain = 0
KMC1 091647Z 34009KT 06/M04 A304 RMK A01 T00581038  RH  050%=      5-min Rain = 0
KMC1 091648Z 33008KT 06/M04 A304 RMK A01 T00571043  RH  049%=      5-min Rain = 0
KMC1 091649Z 33008KT 06/M04 A304 RMK A01 T00571042  RH  049%=      5-min Rain = 0
KMC1 091650Z 32010KT 06/M05 A304 RMK A01 T00571048  RH  047%=      5-min Rain = 0
KMC1 091651Z 34007KT 06/M05 A304 RMK A01 T00561052  RH  046%=      5-min Rain = 0
KMC1 091652Z 34007KT 06/M04 A304 RMK A01 T00571044  RH  048%=      5-min Rain = 0
KMC1 091653Z 33009KT 06/M05 A304 RMK A01 T00581046  RH  047%=      5-min Rain = 0
KMC1 091654Z 34009KT 06/M05 A304 RMK A01 T00591049  RH  046%=      5-min Rain = 0
KMC1 091655Z 34009KT 06/M05 A304 RMK A01 T00591050  RH  045%=      5-min Rain = 0
KMC1 091656Z 34010KT 06/M05 A304 RMK A01 T00591053  RH  044%=      5-min Rain = 0
KMC1 091657Z 34007KT 06/M05 A3039 RMK A01 T00581052  RH  045%=      5-min Rain = 0
KMC1 091658Z 33008KT 06/M05 A3039 RMK A01 T00591051  RH  045%=      5-min Rain = 0
KMC1 091659Z 33008G13KT 06/M05 A3039 RMK A01 T00591049  RH  046%=      5-min Rain = 0
KMC1 091700Z 33011KT 06/M05 A3039 RMK A01 T00601053  RH  044%=      5-min Rain = 0
KMC1 091701Z 34011KT 06/M05 A3039 RMK A01 T00591054  RH  044%=      5-min Rain = 0
KMC1 091702Z 34011KT 06/M06 A3039 RMK A01 T00581055  RH  044%=      5-min Rain = 0
KMC1 091703Z 35008KT 06/M05 A3039 RMK A01 T00581054  RH  044%=      5-min Rain = 0
KMC1 091704Z 34007KT 06/M05 A3039 RMK A01 T00591052  RH  045%=      5-min Rain = 0
KMC1 091705Z 34007KT 06/M05 A3039 RMK A01 T00601050  RH  045%=      5-min Rain = 0
KMC1 091706Z 33009KT 06/M05 A3039 RMK A01 T00621052  RH  044%=      5-min Rain = 0
KMC1 091707Z 33007KT 06/M05 A304 RMK A01 T00611053  RH  044%=      5-min Rain = 0
KMC1 091708Z 34008KT 06/M05 A3039 RMK A01 T00611051  RH  045%=      5-min Rain = 0
KMC1 091709Z 34008KT 06/M05 A3039 RMK A01 T00621050  RH  045%=      5-min Rain = 0
KMC1 091710Z 34012KT 06/M05 A3039 RMK A01 T00631052  RH  044%=      5-min Rain = 0
KMC1 091711Z 34009KT 06/M06 A304 RMK A01 T00621058  RH  042%=      5-min Rain = 0
KMC1 091712Z 33008KT 06/M06 A304 RMK A01 T00611059  RH  042%=      5-min Rain = 0
KMC1 091713Z 34009KT 06/M05 A304 RMK A01 T00601054  RH  044%=      5-min Rain = 0
KMC1 091714Z 34009KT 06/M06 A3039 RMK A01 T00611057  RH  042%=      5-min Rain = 0
KMC1 091715Z 35010KT 06/M06 A3039 RMK A01 T00611056  RH  043%=      5-min Rain = 0
KMC1 091716Z 34009KT 06/M06 A3039 RMK A01 T00611055  RH  043%=      5-min Rain = 0
KMC1 091717Z 34008KT 06/M05 A3039 RMK A01 T00621053  RH  044%=      5-min Rain = 0
KMC1 091718Z 33007KT 06/M05 A3039 RMK A01 T00631051  RH  044%=      5-min Rain = 0
KMC1 091719Z 34010KT 06/M05 A3039 RMK A01 T00641049  RH  044%=      5-min Rain = 0
KMC1 091720Z 35010KT 07/M05 A3039 RMK A01 T00651053  RH  043%=      5-min Rain = 0
KMC1 091721Z 35010KT 06/M05 A3039 RMK A01 T00641049  RH  044%=      5-min Rain = 0
KMC1 091722Z 00008KT 06/M05 A3039 RMK A01 T00641051  RH  044%=      5-min Rain = 0
KMC1 091723Z 36008KT 06/M05 A3039 RMK A01 T00631051  RH  044%=      5-min Rain = 0
KMC1 091724Z 35011KT 06/M05 A3039 RMK A01 T00641049  RH  044%=      5-min Rain = 0
KMC1 091725Z 34009KT 06/M05 A3039 RMK A01 T00641051  RH  044%=      5-min Rain = 0
KMC1 091726Z 34008KT 06/M05 A3039 RMK A01 T00631050  RH  044%=      5-min Rain = 0
KMC1 091727Z 34008KT 06/M05 A3039 RMK A01 T00641049  RH  044%=      5-min Rain = 0
KMC1 091728Z 34007KT 07/M05 A3039 RMK A01 T00651047  RH  045%=      5-min Rain = 0
KMC1 091729Z 34008KT 07/M04 A3039 RMK A01 T00681041  RH  046%=      5-min Rain = 0
KMC1 091730Z 34010KT 07/M05 A3039 RMK A01 T00691051  RH  042%=      5-min Rain = 0
KMC1 091731Z 34007KT 07/M06 A3039 RMK A01 T00671056  RH  041%=      5-min Rain = 0
KMC1 091732Z 35009KT 07/M05 A3039 RMK A01 T00671052  RH  042%=      5-min Rain = 0
KMC1 091733Z 01007KT 07/M05 A3039 RMK A01 T00681050  RH  043%=      5-min Rain = 0
KMC1 091734Z 00009KT 07/M05 A3039 RMK A01 T00681054  RH  041%=      5-min Rain = 0
KMC1 091735Z 35010KT 07/M05 A3039 RMK A01 T00691054  RH  041%=      5-min Rain = 0
KMC1 091736Z 00009KT 07/M06 A3039 RMK A01 T00681055  RH  041%=      5-min Rain = 0
KMC1 091737Z 36010KT 07/M06 A3039 RMK A01 T00681055  RH  041%=      5-min Rain = 0
KMC1 091738Z 36010KT 07/M06 A3039 RMK A01 T00671057  RH  041%=      5-min Rain = 0
KMC1 091739Z 36010KT 07/M06 A3039 RMK A01 T00661055  RH  042%=      5-min Rain = 0
KMC1 091740Z 35008KT 07/M06 A3039 RMK A01 T00661056  RH  041%=      5-min Rain = 0
KMC1 091741Z 35010KT 07/M06 A3038 RMK A01 T00661057  RH  041%=      5-min Rain = 0
KMC1 091742Z 34009KT 07/M06 A3038 RMK A01 T00661060  RH  040%=      5-min Rain = 0
KMC1 091743Z 35011KT 07/M06 A3038 RMK A01 T00661058  RH  041%=      5-min Rain = 0
KMC1 091744Z 35008KT 07/M06 A3038 RMK A01 T00671057  RH  041%=      5-min Rain = 0
KMC1 091745Z 33008G13KT 07/M05 A3038 RMK A01 T00671054  RH  042%=      5-min Rain = 0
KMC1 091746Z 33009KT 07/M06 A3038 RMK A01 T00681057  RH  041%=      5-min Rain = 0
KMC1 091747Z 34010KT 07/M06 A3038 RMK A01 T00691057  RH  040%=      5-min Rain = 0
KMC1 091748Z 35008KT 07/M06 A3038 RMK A01 T00691056  RH  040%=      5-min Rain = 0
KMC1 091749Z 35009KT 07/M06 A3038 RMK A01 T00691058  RH  040%=      5-min Rain = 0
KMC1 091750Z 35009KT 07/M06 A3038 RMK A01 T00691060  RH  039%=      5-min Rain = 0
KMC1 091751Z 00010KT 07/M06 A3038 RMK A01 T00691060  RH  039%=      5-min Rain = 0
KMC1 091752Z 00008KT 07/M06 A3038 RMK A01 T00691060  RH  039%=      5-min Rain = 0
KMC1 091753Z 36010KT 07/M06 A3038 RMK A01 T00691059  RH  040%=      5-min Rain = 0
KMC1 091754Z 35009KT 07/M06 A3038 RMK A01 T00701059  RH  039%=      5-min Rain = 0
KMC1 091755Z 01008KT 07/M06 A3038 RMK A01 T00701055  RH  040%=      5-min Rain = 0
KMC1 091756Z 01009KT 07/M06 A3038 RMK A01 T00721056  RH  040%=      5-min Rain = 0
KMC1 091757Z 35009KT 07/M06 A3038 RMK A01 T00711056  RH  040%=      5-min Rain = 0
KMC1 091758Z 35011KT 07/M06 A3038 RMK A01 T00711058  RH  039%=      5-min Rain = 0
KMC1 091759Z 35009KT 07/M06 A3038 RMK A01 T00711061  RH  039%=      5-min Rain = 0
KMC1 091800Z 36008KT 07/M06 A3038 RMK A01 T00701063  RH  038%=      5-min Rain = 0
KMC1 091801Z 36007KT 07/M06 A3038 RMK A01 T00691061  RH  039%=      5-min Rain = 0
KMC1 091802Z 34010KT 07/M06 A3038 RMK A01 T00711055  RH  040%=      5-min Rain = 0
KMC1 091803Z 32007KT 07/M06 A3038 RMK A01 T00721061  RH  038%=      5-min Rain = 0
KMC1 091804Z 34007KT 07/M06 A3038 RMK A01 T00721059  RH  039%=      5-min Rain = 0
KMC1 091805Z 36009KT 07/M06 A3038 RMK A01 T00731062  RH  038%=      5-min Rain = 0
KMC1 091806Z 36008KT 07/M06 A3038 RMK A01 T00711060  RH  039%=      5-min Rain = 0
KMC1 091807Z 35011KT 07/M06 A3037 RMK A01 T00711058  RH  039%=      5-min Rain = 0
KMC1 091808Z 35010KT 07/M06 A3037 RMK A01 T00711060  RH  039%=      5-min Rain = 0
KMC1 091809Z 35009KT 07/M06 A3037 RMK A01 T00691064  RH  038%=      5-min Rain = 0
KMC1 091810Z 35009KT 07/M06 A3037 RMK A01 T00691059  RH  040%=      5-min Rain = 0
KMC1 091811Z 35010KT 07/M06 A3037 RMK A01 T00711055  RH  040%=      5-min Rain = 0
KMC1 091812Z 35011KT 07/M06 A3037 RMK A01 T00721057  RH  039%=      5-min Rain = 0
KMC1 091813Z 35010KT 07/M06 A3037 RMK A01 T00711059  RH  039%=      5-min Rain = 0
KMC1 091814Z 00008KT 07/M06 A3037 RMK A01 T00711057  RH  040%=      5-min Rain = 0
KMC1 091815Z 36007KT 07/M06 A3037 RMK A01 T00701057  RH  040%=      5-min Rain = 0
KMC1 091816Z 35010KT 07/M05 A3037 RMK A01 T00701052  RH  042%=      5-min Rain = 0
KMC1 091817Z 35009KT 07/M05 A3037 RMK A01 T00711051  RH  041%=      5-min Rain = 0
KMC1 091818Z 35009KT 07/M05 A3037 RMK A01 T00731053  RH  040%=      5-min Rain = 0
KMC1 091819Z 00007KT 07/M05 A3037 RMK A01 T00731054  RH  040%=      5-min Rain = 0
KMC1 091820Z 00008KT 07/M06 A3037 RMK A01 T00721056  RH  040%=      5-min Rain = 0
KMC1 091821Z 01006KT 07/M05 A3037 RMK A01 T00721054  RH  040%=      5-min Rain = 0
KMC1 091822Z 00006KT 07/M05 A3037 RMK A01 T00731052  RH  041%=      5-min Rain = 0
KMC1 091823Z 00007KT 07/M05 A3037 RMK A01 T00741050  RH  041%=      5-min Rain = 0
KMC1 091824Z 01008KT 08/M05 A3037 RMK A01 T00751047  RH  042%=      5-min Rain = 0
KMC1 091825Z 01007KT 07/M05 A3037 RMK A01 T00741050  RH  041%=      5-min Rain = 0
KMC1 091826Z 34007KT 07/M05 A3037 RMK A01 T00741049  RH  041%=      5-min Rain = 0
KMC1 091827Z 32010KT 07/M05 A3037 RMK A01 T00741050  RH  041%=      5-min Rain = 0
KMC1 091828Z 33009KT 07/M06 A3037 RMK A01 T00731055  RH  040%=      5-min Rain = 0
KMC1 091829Z 33008KT 07/M05 A3037 RMK A01 T00711050  RH  042%=      5-min Rain = 0
KMC1 091830Z 35006KT 07/M05 A3037 RMK A01 T00721045  RH  043%=      5-min Rain = 0
KMC1 091831Z 34005KT 08/M04 A3037 RMK A01 T00751039  RH  044%=      5-min Rain = 0
KMC1 091832Z 31010KT 08/M04 A3036 RMK A01 T00781037  RH  044%=      5-min Rain = 0
KMC1 091833Z 33006KT 08/M04 A3037 RMK A01 T00801037  RH  043%=      5-min Rain = 0
KMC1 091834Z 35008KT 08/M04 A3036 RMK A01 T00811038  RH  043%=      5-min Rain = 0
KMC1 091835Z 34008KT 08/M04 A3036 RMK A01 T00791044  RH  042%=      5-min Rain = 0
KMC1 091836Z 31006KT 08/M04 A3036 RMK A01 T00781040  RH  043%=      5-min Rain = 0
KMC1 091837Z 31010KT 08/M04 A3036 RMK A01 T00781037  RH  044%=      5-min Rain = 0
KMC1 091838Z 33008KT 08/M04 A3036 RMK A01 T00791035  RH  045%=      5-min Rain = 0
KMC1 091839Z 35007KT 08/M04 A3036 RMK A01 T00781038  RH  044%=      5-min Rain = 0
KMC1 091840Z 00006KT 08/M04 A3036 RMK A01 T00751044  RH  043%=      5-min Rain = 0
KMC1 091841Z 32006KT 07/M04 A3036 RMK A01 T00741038  RH  045%=      5-min Rain = 0
KMC1 091842Z 32007KT 07/M04 A3036 RMK A01 T00741038  RH  045%=      5-min Rain = 0
KMC1 091843Z 31008KT 08/M03 A3036 RMK A01 T00761031  RH  047%=      5-min Rain = 0
KMC1 091844Z 34007KT 08/M03 A3036 RMK A01 T00781032  RH  046%=      5-min Rain = 0
KMC1 091845Z 34006KT 08/M04 A3036 RMK A01 T00781035  RH  045%=      5-min Rain = 0
KMC1 091846Z 35005KT 08/M03 A3036 RMK A01 T00761032  RH  046%=      5-min Rain = 0
KMC1 091847Z 35004KT 08/M03 A3036 RMK A01 T00771031  RH  046%=      5-min Rain = 0
KMC1 091848Z 00009KT 08/M03 A3035 RMK A01 T00781031  RH  046%=      5-min Rain = 0
KMC1 091849Z 01007KT 08/M04 A3035 RMK A01 T00761035  RH  045%=      5-min Rain = 0
KMC1 091850Z 35005KT 07/M03 A3035 RMK A01 T00741034  RH  046%=      5-min Rain = 0
KMC1 091851Z 35006KT 08/M03 A3035 RMK A01 T00751028  RH  048%=      5-min Rain = 0
KMC1 091852Z 01008KT 08/M03 A3035 RMK A01 T00761028  RH  048%=      5-min Rain = 0
KMC1 091853Z 35009KT 08/M03 A3035 RMK A01 T00771028  RH  048%=      5-min Rain = 0
KMC1 091854Z 01008KT 08/M03 A3035 RMK A01 T00781025  RH  048%=      5-min Rain = 0
KMC1 091855Z 35009KT 08/M03 A3035 RMK A01 T00801026  RH  047%=      5-min Rain = 0
KMC1 091856Z 33006KT 08/M03 A3035 RMK A01 T00771029  RH  047%=      5-min Rain = 0
KMC1 091857Z 35006KT 08/M02 A3035 RMK A01 T00781019  RH  050%=      5-min Rain = 0
KMC1 091858Z 34007KT 08/M02 A3035 RMK A01 T00831015  RH  050%=      5-min Rain = 0
KMC1 091859Z 34006KT 08/M02 A3035 RMK A01 T00841022  RH  047%=      5-min Rain = 0
KMC1 091900Z 01004KT 08/M03 A3035 RMK A01 T00801028  RH  046%=      5-min Rain = 0
KMC1 091901Z 36005KT 08/M03 A3035 RMK A01 T00771027  RH  048%=      5-min Rain = 0
KMC1 091902Z 01003KT 08/M03 A3034 RMK A01 T00771025  RH  049%=      5-min Rain = 0
KMC1 091903Z 36008G13KT 08/M02 A3034 RMK A01 T00781022  RH  049%=      5-min Rain = 0
KMC1 091904Z 35009KT 08/M02 A3034 RMK A01 T00801022  RH  049%=      5-min Rain = 0
KMC1 091905Z 35009KT 08/M02 A3034 RMK A01 T00801024  RH  048%=      5-min Rain = 0
KMC1 091906Z 00010KT 08/M02 A3034 RMK A01 T00791024  RH  048%=      5-min Rain = 0
KMC1 091907Z 01010KT 08/M02 A3034 RMK A01 T00791023  RH  049%=      5-min Rain = 0
KMC1 091908Z 00009KT 08/M02 A3034 RMK A01 T00781024  RH  049%=      5-min Rain = 0
KMC1 091909Z 01009KT 08/M03 A3034 RMK A01 T00761025  RH  049%=      5-min Rain = 0
KMC1 091910Z 01007KT 08/M02 A3034 RMK A01 T00761022  RH  050%=      5-min Rain = 0
KMC1 091911Z 35007KT 08/M02 A3034 RMK A01 T00781019  RH  050%=      5-min Rain = 0
KMC1 091912Z 34008G13KT 08/M02 A3034 RMK A01 T00791018  RH  050%=      5-min Rain = 0
KMC1 091913Z 34008KT 08/M02 A3034 RMK A01 T00781021  RH  050%=      5-min Rain = 0
KMC1 091914Z 32009KT 08/M02 A3034 RMK A01 T00771020  RH  050%=      5-min Rain = 0
KMC1 091915Z 33009KT 08/M02 A3034 RMK A01 T00771019  RH  051%=      5-min Rain = 0
KMC1 091916Z 31009KT 08/M02 A3034 RMK A01 T00781017  RH  051%=      5-min Rain = 0
KMC1 091917Z 32008KT 08/M02 A3034 RMK A01 T00791017  RH  051%=      5-min Rain = 0
KMC1 091918Z 32006KT 08/M02 A3034 RMK A01 T00801015  RH  051%=      5-min Rain = 0
KMC1 091919Z 35007KT 08/M01 A3034 RMK A01 T00821011  RH  052%=      5-min Rain = 0
KMC1 091920Z 02006KT 08/M01 A3034 RMK A01 T00831012  RH  051%=      5-min Rain = 0
KMC1 091921Z 01006KT 08/M01 A3034 RMK A01 T00841012  RH  051%=      5-min Rain = 0
KMC1 091922Z 01006KT 08/M02 A3034 RMK A01 T00841015  RH  050%=      5-min Rain = 0
KMC1 091923Z 34008KT 08/M02 A3034 RMK A01 T00821015  RH  050%=      5-min Rain = 0
KMC1 091924Z 33006KT 08/M01 A3034 RMK A01 T00831014  RH  051%=      5-min Rain = 0
KMC1 091925Z 31006KT 08/M02 A3034 RMK A01 T00841016  RH  049%=      5-min Rain = 0
KMC1 091926Z 31008KT 08/M02 A3034 RMK A01 T00841019  RH  048%=      5-min Rain = 0
KMC1 091927Z 33007KT 08/M02 A3033 RMK A01 T00841018  RH  049%=      5-min Rain = 0
KMC1 091928Z 32009KT 08/M02 A3034 RMK A01 T00841018  RH  049%=      5-min Rain = 0
KMC1 091929Z 32009KT 08/M02 A3033 RMK A01 T00831016  RH  049%=      5-min Rain = 0
KMC1 091930Z 32009KT 08/M02 A3033 RMK A01 T00841021  RH  048%=      5-min Rain = 0
KMC1 091931Z 34008KT 08/M02 A3033 RMK A01 T00831020  RH  048%=      5-min Rain = 0
KMC1 091932Z 00007KT 08/M02 A3033 RMK A01 T00831018  RH  049%=      5-min Rain = 0
KMC1 091933Z 01009KT 08/M02 A3033 RMK A01 T00841021  RH  048%=      5-min Rain = 0
KMC1 091934Z 00006KT 08/M02 A3033 RMK A01 T00821021  RH  048%=      5-min Rain = 0
KMC1 091935Z 35005KT 08/M02 A3033 RMK A01 T00811020  RH  049%=      5-min Rain = 0
KMC1 091936Z 34007KT 08/M02 A3033 RMK A01 T00811019  RH  049%=      5-min Rain = 0
KMC1 091937Z 33009KT 08/M02 A3033 RMK A01 T00811020  RH  049%=      5-min Rain = 0
KMC1 091938Z 32007KT 08/M03 A3033 RMK A01 T00811027  RH  046%=      5-min Rain = 0
KMC1 091939Z 32008KT 08/M03 A3033 RMK A01 T00801025  RH  047%=      5-min Rain = 0
KMC1 091940Z 33006KT 08/M03 A3033 RMK A01 T00801028  RH  046%=      5-min Rain = 0
KMC1 091941Z 32008KT 08/M03 A3033 RMK A01 T00791026  RH  047%=      5-min Rain = 0
KMC1 091942Z 31008KT 08/M02 A3033 RMK A01 T00801021  RH  049%=      5-min Rain = 0
KMC1 091943Z 32009KT 08/M02 A3033 RMK A01 T00831019  RH  049%=      5-min Rain = 0
KMC1 091944Z 32005KT 08/M02 A3033 RMK A01 T00831019  RH  049%=      5-min Rain = 0
KMC1 091945Z 00007KT 08/M02 A3033 RMK A01 T00841017  RH  049%=      5-min Rain = 0
KMC1 091946Z 00005KT 09/M01 A3033 RMK A01 T00861014  RH  049%=      5-min Rain = 0
KMC1 091947Z 00005KT 09/M01 A3033 RMK A01 T00881013  RH  049%=      5-min Rain = 0
KMC1 091948Z 34007KT 09/M02 A3033 RMK A01 T00881016  RH  048%=      5-min Rain = 0
KMC1 091949Z 00008G13KT 09/M01 A3033 RMK A01 T00881014  RH  049%=      5-min Rain = 0
KMC1 091950Z 00012KT 09/M02 A3033 RMK A01 T00871015  RH  049%=      5-min Rain = 0
KMC1 091951Z 34006KT 09/M02 A3033 RMK A01 T00861016  RH  049%=      5-min Rain = 0
KMC1 091952Z 35008KT 09/M02 A3033 RMK A01 T00861015  RH  049%=      5-min Rain = 0
KMC1 091953Z 32007KT 09/M02 A3033 RMK A01 T00871016  RH  048%=      5-min Rain = 0
KMC1 091954Z 31008KT 09/M02 A3033 RMK A01 T00881016  RH  048%=      5-min Rain = 0
KMC1 091955Z 32006KT 09/M02 A3033 RMK A01 T00891022  RH  046%=      5-min Rain = 0
KMC1 091956Z 33003KT 09/M02 A3033 RMK A01 T00871024  RH  046%=      5-min Rain = 0
KMC1 091957Z 32008KT 09/M02 A3033 RMK A01 T00861022  RH  047%=      5-min Rain = 0
KMC1 091958Z 34008KT 09/M02 A3033 RMK A01 T00851023  RH  046%=      5-min Rain = 0
KMC1 091959Z 35006KT 08/M02 A3033 RMK A01 T00831023  RH  047%=      5-min Rain = 0
KMC1 092000Z 35007KT 08/M02 A3033 RMK A01 T00831016  RH  050%=      5-min Rain = 0
KMC1 092001Z 32007KT 09/M01 A3033 RMK A01 T00871011  RH  050%=      5-min Rain = 0
KMC1 092002Z 32007KT 09/M02 A3033 RMK A01 T00891017  RH  047%=      5-min Rain = 0
KMC1 092003Z 31007KT 09/M02 A3033 RMK A01 T00891020  RH  046%=      5-min Rain = 0
KMC1 092004Z 30009KT 09/M02 A3033 RMK A01 T00891018  RH  047%=      5-min Rain = 0
KMC1 092005Z 33008KT 09/M02 A3033 RMK A01 T00901018  RH  047%=      5-min Rain = 0
KMC1 092006Z 35009KT 09/M02 A3033 RMK A01 T00911016  RH  047%=      5-min Rain = 0
KMC1 092007Z 34009KT 09/M02 A3033 RMK A01 T00911020  RH  046%=      5-min Rain = 0
KMC1 092008Z 33008KT 09/M02 A3033 RMK A01 T00891022  RH  046%=      5-min Rain = 0
KMC1 092009Z 33007KT 09/M03 A3032 RMK A01 T00871025  RH  045%=      5-min Rain = 0
KMC1 092010Z 33007KT 09/M02 A3032 RMK A01 T00861021  RH  047%=      5-min Rain = 0
KMC1 092011Z 36007KT 09/M02 A3032 RMK A01 T00871018  RH  048%=      5-min Rain = 0
KMC1 092012Z 33005KT 09/M02 A3032 RMK A01 T00871018  RH  048%=      5-min Rain = 0
KMC1 092013Z 33008KT 09/M01 A3032 RMK A01 T00871013  RH  049%=      5-min Rain = 0
KMC1 092014Z 32011KT 09/M02 A3032 RMK A01 T00881015  RH  048%=      5-min Rain = 0
KMC1 092015Z 31008KT 09/M02 A3032 RMK A01 T00871017  RH  048%=      5-min Rain = 0
KMC1 092016Z 33009KT 09/M02 A3033 RMK A01 T00851016  RH  049%=      5-min Rain = 0
KMC1 092017Z 34006KT 09/M02 A3033 RMK A01 T00851019  RH  048%=      5-min Rain = 0
KMC1 092018Z 35007KT 08/M02 A3033 RMK A01 T00841016  RH  049%=      5-min Rain = 0
KMC1 092019Z 34006KT 09/M02 A3033 RMK A01 T00861016  RH  049%=      5-min Rain = 0
KMC1 092020Z 35008G13KT 09/M01 A3033 RMK A01 T00871014  RH  049%=      5-min Rain = 0
KMC1 092021Z 36010KT 09/M01 A3033 RMK A01 T00881014  RH  049%=      5-min Rain = 0
KMC1 092022Z 34010KT 09/M02 A3033 RMK A01 T00881016  RH  048%=      5-min Rain = 0
KMC1 092023Z 32008KT 09/M02 A3033 RMK A01 T00861019  RH  047%=      5-min Rain = 0
KMC1 092024Z 32006KT 08/M02 A3033 RMK A01 T00841022  RH  047%=      5-min Rain = 0
KMC1 092025Z 31006KT 08/M02 A3033 RMK A01 T00841017  RH  049%=      5-min Rain = 0
KMC1 092026Z 32005KT 09/M02 A3033 RMK A01 T00861015  RH  049%=      5-min Rain = 0
KMC1 092027Z 35005KT 09/M02 A3033 RMK A01 T00861017  RH  048%=      5-min Rain = 0
KMC1 092028Z 35005KT 09/M02 A3033 RMK A01 T00861017  RH  048%=      5-min Rain = 0
KMC1 092029Z 34004KT 09/M02 A3032 RMK A01 T00861020  RH  047%=      5-min Rain = 0
KMC1 092030Z 33005KT 08/M02 A3032 RMK A01 T00841019  RH  048%=      5-min Rain = 0
KMC1 092031Z 33008KT 08/M02 A3033 RMK A01 T00841018  RH  049%=      5-min Rain = 0
KMC1 092032Z 34010KT 09/M02 A3032 RMK A01 T00851016  RH  049%=      5-min Rain = 0
KMC1 092033Z 35010KT 09/M02 A3032 RMK A01 T00861016  RH  049%=      5-min Rain = 0
KMC1 092034Z 33008KT 09/M02 A3032 RMK A01 T00861017  RH  048%=      5-min Rain = 0
KMC1 092035Z 33006KT 08/M02 A3032 RMK A01 T00841021  RH  048%=      5-min Rain = 0
KMC1 092036Z 33007KT 08/M02 A3032 RMK A01 T00831020  RH  048%=      5-min Rain = 0
KMC1 092037Z 36008KT 08/M02 A3032 RMK A01 T00841017  RH  049%=      5-min Rain = 0
KMC1 092038Z 35009KT 09/M02 A3032 RMK A01 T00851018  RH  048%=      5-min Rain = 0
KMC1 092039Z 35008KT 09/M02 A3032 RMK A01 T00851019  RH  048%=      5-min Rain = 0
KMC1 092040Z 36007KT 09/M02 A3032 RMK A01 T00861018  RH  048%=      5-min Rain = 0
KMC1 092041Z 00006KT 09/M02 A3032 RMK A01 T00871015  RH  049%=      5-min Rain = 0
KMC1 092042Z 33007KT 09/M01 A3032 RMK A01 T00891012  RH  049%=      5-min Rain = 0
KMC1 092043Z 36006KT 09/M02 A3032 RMK A01 T00901019  RH  046%=      5-min Rain = 0
KMC1 092044Z 00010KT 09/M02 A3032 RMK A01 T00891017  RH  047%=      5-min Rain = 0
KMC1 092045Z 01008KT 09/M02 A3032 RMK A01 T00881018  RH  047%=      5-min Rain = 0
KMC1 092046Z 00008KT 09/M01 A3032 RMK A01 T00871014  RH  049%=      5-min Rain = 0
KMC1 092047Z 34008KT 09/M02 A3032 RMK A01 T00881015  RH  048%=      5-min Rain = 0
KMC1 092048Z 01007KT 09/M02 A3032 RMK A01 T00881017  RH  048%=      5-min Rain = 0
KMC1 092049Z 01008KT 09/M02 A3032 RMK A01 T00871018  RH  048%=      5-min Rain = 0
KMC1 092050Z 01005KT 09/M02 A3032 RMK A01 T00871017  RH  048%=      5-min Rain = 0
KMC1 092051Z 01006KT 09/M01 A3032 RMK A01 T00891014  RH  048%=      5-min Rain = 0
KMC1 092052Z 36006KT 09/M01 A3032 RMK A01 T00911013  RH  048%=      5-min Rain = 0
KMC1 092053Z 35008KT 09/M01 A3032 RMK A01 T00921012  RH  048%=      5-min Rain = 0
KMC1 092054Z 36009KT 09/M01 A3032 RMK A01 T00921014  RH  048%=      5-min Rain = 0
KMC1 092055Z 34008KT 09/M01 A3032 RMK A01 T00901014  RH  048%=      5-min Rain = 0
KMC1 092056Z 34007KT 09/M02 A3032 RMK A01 T00901017  RH  047%=      5-min Rain = 0
KMC1 092057Z 35009KT 09/M02 A3032 RMK A01 T00911015  RH  047%=      5-min Rain = 0
KMC1 092058Z 35006KT 09/M02 A3032 RMK A01 T00911016  RH  047%=      5-min Rain = 0
KMC1 092059Z 35006KT 09/M02 A3032 RMK A01 T00891017  RH  047%=      5-min Rain = 0
KMC1 092100Z 33007KT 09/M01 A3032 RMK A01 T00901013  RH  049%=      5-min Rain = 0
KMC1 092101Z 35011KT 09/M01 A3032 RMK A01 T00921014  RH  047%=      5-min Rain = 0
KMC1 092102Z 35012KT 09/M02 A3032 RMK A01 T00911017  RH  047%=      5-min Rain = 0
KMC1 092103Z 35012KT 09/M02 A3032 RMK A01 T00891015  RH  048%=      5-min Rain = 0
KMC1 092104Z 35009KT 09/M02 A3032 RMK A01 T00881015  RH  048%=      5-min Rain = 0
KMC1 092105Z 36009KT 09/M02 A3032 RMK A01 T00881016  RH  048%=      5-min Rain = 0
KMC1 092106Z 35007KT 09/M02 A3032 RMK A01 T00871016  RH  048%=      5-min Rain = 0
KMC1 092107Z 35007KT 09/M01 A3032 RMK A01 T00891011  RH  049%=      5-min Rain = 0
KMC1 092108Z 35008KT 09/M01 A3032 RMK A01 T00911011  RH  049%=      5-min Rain = 0
KMC1 092109Z 35007KT 09/M01 A3032 RMK A01 T00911013  RH  048%=      5-min Rain = 0
KMC1 092110Z 34005KT 09/M01 A3032 RMK A01 T00911012  RH  048%=      5-min Rain = 0
KMC1 092111Z 00008KT 09/M01 A3032 RMK A01 T00921009  RH  049%=      5-min Rain = 0
KMC1 092112Z 35006KT 09/M01 A3032 RMK A01 T00921006  RH  050%=      5-min Rain = 0
KMC1 092113Z 35008KT 09/M01 A3032 RMK A01 T00921011  RH  049%=      5-min Rain = 0
KMC1 092114Z 00009KT 09/M01 A3032 RMK A01 T00901012  RH  049%=      5-min Rain = 0
KMC1 092115Z 01009KT 09/M01 A3032 RMK A01 T00901011  RH  049%=      5-min Rain = 0
KMC1 092116Z 00009KT 09/M01 A3032 RMK A01 T00901011  RH  049%=      5-min Rain = 0
KMC1 092117Z 35010KT 09/M01 A3032 RMK A01 T00901011  RH  049%=      5-min Rain = 0
KMC1 092118Z 35008KT 09/M01 A3032 RMK A01 T00901010  RH  049%=      5-min Rain = 0
KMC1 092119Z 34007KT 09/M01 A3032 RMK A01 T00901012  RH  049%=      5-min Rain = 0
KMC1 092120Z 33008KT 09/M01 A3032 RMK A01 T00901012  RH  049%=      5-min Rain = 0
KMC1 092121Z 34007KT 09/M01 A3032 RMK A01 T00901014  RH  048%=      5-min Rain = 0
KMC1 092122Z 36005KT 09/M01 A3032 RMK A01 T00891014  RH  048%=      5-min Rain = 0
KMC1 092123Z 35006KT 09/M01 A3032 RMK A01 T00891011  RH  049%=      5-min Rain = 0
KMC1 092124Z 34005KT 09/M01 A3032 RMK A01 T00901009  RH  050%=      5-min Rain = 0
KMC1 092125Z 35008KT 09/M01 A3032 RMK A01 T00911008  RH  050%=      5-min Rain = 0
KMC1 092126Z 36008KT 09/M01 A3032 RMK A01 T00921011  RH  049%=      5-min Rain = 0
KMC1 092127Z 00008KT 09/M01 A3032 RMK A01 T00901013  RH  048%=      5-min Rain = 0
KMC1 092128Z 35009KT 09/M01 A3032 RMK A01 T00901010  RH  050%=      5-min Rain = 0
KMC1 092129Z 35012KT 09/M01 A3032 RMK A01 T00891010  RH  050%=      5-min Rain = 0
KMC1 092130Z 35008KT 09/M01 A3032 RMK A01 T00881011  RH  050%=      5-min Rain = 0
KMC1 092131Z 35007KT 09/M01 A3032 RMK A01 T00871011  RH  050%=      5-min Rain = 0
KMC1 092132Z 35008KT 09/M01 A3032 RMK A01 T00871012  RH  050%=      5-min Rain = 0
KMC1 092133Z 36010KT 09/M01 A3032 RMK A01 T00871012  RH  050%=      5-min Rain = 0
KMC1 092134Z 00006KT 09/M01 A3032 RMK A01 T00871012  RH  050%=      5-min Rain = 0
KMC1 092135Z 36006KT 09/M01 A3032 RMK A01 T00871010  RH  051%=      5-min Rain = 0
KMC1 092136Z 00007KT 09/M01 A3032 RMK A01 T00881009  RH  051%=      5-min Rain = 0
KMC1 092137Z 02007KT 09/M01 A3032 RMK A01 T00881010  RH  050%=      5-min Rain = 0
KMC1 092138Z 36009KT 09/M01 A3032 RMK A01 T00881013  RH  049%=      5-min Rain = 0
KMC1 092139Z 35008KT 09/M01 A3032 RMK A01 T00871010  RH  051%=      5-min Rain = 0
KMC1 092140Z 35008KT 09/M01 A3032 RMK A01 T00861010  RH  051%=      5-min Rain = 0
KMC1 092141Z 34009KT 09/M01 A3032 RMK A01 T00881006  RH  052%=      5-min Rain = 0
KMC1 092142Z 34006KT 09/M01 A3032 RMK A01 T00891008  RH  051%=      5-min Rain = 0
KMC1 092143Z 36007KT 09/M01 A3032 RMK A01 T00891008  RH  051%=      5-min Rain = 0
KMC1 092144Z 36007KT 09/M01 A3032 RMK A01 T00881009  RH  050%=      5-min Rain = 0
KMC1 092145Z 36008KT 09/M01 A3032 RMK A01 T00881009  RH  051%=      5-min Rain = 0
KMC1 092146Z 00007KT 09/M01 A3032 RMK A01 T00881009  RH  051%=      5-min Rain = 0
KMC1 092147Z 36010KT 09/M01 A3032 RMK A01 T00871008  RH  051%=      5-min Rain = 0
KMC1 092148Z 34009KT 09/M01 A3032 RMK A01 T00881006  RH  052%=      5-min Rain = 0
KMC1 092149Z 33007KT 09/M01 A3032 RMK A01 T00881009  RH  051%=      5-min Rain = 0
KMC1 092150Z 35007KT 09/M01 A3032 RMK A01 T00871007  RH  051%=      5-min Rain = 0
KMC1 092151Z 35007KT 09/M01 A3032 RMK A01 T00881005  RH  052%=      5-min Rain = 0
KMC1 092152Z 35007KT 09/M01 A3032 RMK A01 T00881005  RH  052%=      5-min Rain = 0
KMC1 092153Z 34007KT 09/M01 A3032 RMK A01 T00891007  RH  051%=      5-min Rain = 0
KMC1 092154Z 01007KT 09/M01 A3032 RMK A01 T00881007  RH  051%=      5-min Rain = 0
KMC1 092155Z 36010KT 09/M01 A3032 RMK A01 T00881006  RH  052%=      5-min Rain = 0
KMC1 092156Z 36008KT 09/M01 A3032 RMK A01 T00881005  RH  052%=      5-min Rain = 0
KMC1 092157Z 36009KT 09/M01 A3032 RMK A01 T00871008  RH  051%=      5-min Rain = 0
KMC1 092158Z 36011KT 09/M01 A3032 RMK A01 T00861008  RH  052%=      5-min Rain = 0
KMC1 092159Z 00007KT 09/M01 A3032 RMK A01 T00851008  RH  052%=      5-min Rain = 0
KMC1 092200Z 00009KT 09/M01 A3032 RMK A01 T00851007  RH  052%=      5-min Rain = 0
KMC1 092201Z 00008KT 09/M01 A3032 RMK A01 T00851008  RH  052%=      5-min Rain = 0
KMC1 092202Z 00006KT 09/M01 A3032 RMK A01 T00851007  RH  052%=      5-min Rain = 0
KMC1 092203Z 36005KT 09/M01 A3032 RMK A01 T00851007  RH  053%=      5-min Rain = 0
KMC1 092204Z 35007KT 09/M01 A3032 RMK A01 T00861006  RH  053%=      5-min Rain = 0
KMC1 092205Z 01010KT 09/M01 A3032 RMK A01 T00861006  RH  052%=      5-min Rain = 0
KMC1 092206Z 35009KT 09/M01 A3032 RMK A01 T00861006  RH  052%=      5-min Rain = 0
KMC1 092207Z 35008KT 09/M00 A3032 RMK A01 T00851004  RH  053%=      5-min Rain = 0
KMC1 092208Z 35008KT 09/M00 A3032 RMK A01 T00851004  RH  053%=      5-min Rain = 0
KMC1 092209Z 35008KT 09/M01 A3032 RMK A01 T00851006  RH  053%=      5-min Rain = 0
KMC1 092210Z 35009KT 09/M01 A3032 RMK A01 T00851005  RH  053%=      5-min Rain = 0
KMC1 092211Z 35008KT 08/M01 A3032 RMK A01 T00841005  RH  053%=      5-min Rain = 0
KMC1 092212Z 00008KT 08/M00 A3032 RMK A01 T00841004  RH  054%=      5-min Rain = 0
KMC1 092213Z 00008KT 08/M01 A3032 RMK A01 T00841005  RH  054%=      5-min Rain = 0
KMC1 092214Z 35008KT 08/M00 A3032 RMK A01 T00841004  RH  054%=      5-min Rain = 0
KMC1 092215Z 35008KT 08/M00 A3032 RMK A01 T00841002  RH  054%=      5-min Rain = 0
KMC1 092216Z 34007KT 09/M00 A3032 RMK A01 T00851002  RH  054%=      5-min Rain = 0
KMC1 092217Z 36007KT 09/M00 A3032 RMK A01 T00851004  RH  054%=      5-min Rain = 0
KMC1 092218Z 36005KT 08/M00 A3032 RMK A01 T00841004  RH  054%=      5-min Rain = 0
KMC1 092219Z 35007KT 08/M00 A3032 RMK A01 T00841004  RH  054%=      5-min Rain = 0
KMC1 092220Z 35008KT 08/M00 A3032 RMK A01 T00841003  RH  054%=      5-min Rain = 0
KMC1 092221Z 34010KT 08/M00 A3032 RMK A01 T00841002  RH  055%=      5-min Rain = 0
KMC1 092222Z 34009KT 08/M00 A3032 RMK A01 T00831003  RH  054%=      5-min Rain = 0
KMC1 092223Z 35008KT 08/M01 A3032 RMK A01 T00821005  RH  054%=      5-min Rain = 0
KMC1 092224Z 35008KT 08/M00 A3032 RMK A01 T00821003  RH  055%=      5-min Rain = 0
KMC1 092225Z 34008KT 08/M00 A3032 RMK A01 T00821004  RH  055%=      5-min Rain = 0
KMC1 092226Z 35006KT 08/M00 A3032 RMK A01 T00821003  RH  055%=      5-min Rain = 0
KMC1 092227Z 34005KT 08/00 A3032 RMK A01 T00820000  RH  056%=      5-min Rain = 0
KMC1 092228Z 33007KT 08/00 A3032 RMK A01 T00840000  RH  056%=      5-min Rain = 0
KMC1 092229Z 34006KT 08/M00 A3032 RMK A01 T00841004  RH  054%=      5-min Rain = 0
KMC1 092230Z 34007KT 08/M00 A3032 RMK A01 T00831002  RH  055%=      5-min Rain = 0
KMC1 092231Z 35007KT 08/00 A3032 RMK A01 T008300-0  RH  056%=      5-min Rain = 0
KMC1 092232Z 00007KT 08/00 A3032 RMK A01 T00830000  RH  056%=      5-min Rain = 0
KMC1 092233Z 00009KT 08/00 A3032 RMK A01 T008300-0  RH  056%=      5-min Rain = 0
KMC1 092234Z 36008KT 08/00 A3032 RMK A01 T008300-0  RH  056%=      5-min Rain = 0
KMC1 092235Z 35009KT 08/00 A3032 RMK A01 T00820001  RH  056%=      5-min Rain = 0
KMC1 092236Z 35008KT 08/M00 A3032 RMK A01 T00811001  RH  056%=      5-min Rain = 0
KMC1 092237Z 35007KT 08/M00 A3032 RMK A01 T00811001  RH  056%=      5-min Rain = 0
KMC1 092238Z 35005KT 08/00 A3032 RMK A01 T00800000  RH  057%=      5-min Rain = 0
KMC1 092239Z 35006KT 08/M00 A3032 RMK A01 T00801001  RH  057%=      5-min Rain = 0
KMC1 092240Z 34005KT 08/M00 A3032 RMK A01 T00801001  RH  057%=      5-min Rain = 0
KMC1 092241Z 35006KT 08/00 A3032 RMK A01 T00800001  RH  057%=      5-min Rain = 0
KMC1 092242Z 35008KT 08/00 A3032 RMK A01 T00810000  RH  057%=      5-min Rain = 0
KMC1 092243Z 34008KT 08/M00 A3032 RMK A01 T00811001  RH  056%=      5-min Rain = 0
KMC1 092244Z 34008KT 08/M00 A3032 RMK A01 T00801002  RH  056%=      5-min Rain = 0
KMC1 092245Z 34007KT 08/M00 A3032 RMK A01 T00801002  RH  056%=      5-min Rain = 0
KMC1 092246Z 34008KT 08/M00 A3032 RMK A01 T00791002  RH  056%=      5-min Rain = 0
KMC1 092247Z 34007KT 08/M00 A3032 RMK A01 T00791002  RH  057%=      5-min Rain = 0
KMC1 092248Z 33007KT 08/M00 A3032 RMK A01 T00791003  RH  056%=      5-min Rain = 0
KMC1 092249Z 34008KT 08/M00 A3032 RMK A01 T00791003  RH  056%=      5-min Rain = 0
KMC1 092250Z 34005KT 08/M00 A3032 RMK A01 T00781002  RH  057%=      5-min Rain = 0
KMC1 092251Z 35007KT 08/00 A3032 RMK A01 T00780000  RH  058%=      5-min Rain = 0
KMC1 092252Z 35007KT 08/00 A3032 RMK A01 T00790000  RH  058%=      5-min Rain = 0
KMC1 092253Z 34007KT 08/M00 A3032 RMK A01 T00781001  RH  057%=      5-min Rain = 0
KMC1 092254Z 34005KT 08/M00 A3032 RMK A01 T00771002  RH  057%=      5-min Rain = 0
KMC1 092255Z 36007KT 08/M00 A3032 RMK A01 T00771001  RH  058%=      5-min Rain = 0
KMC1 092256Z 35005KT 08/M00 A3032 RMK A01 T00781003  RH  057%=      5-min Rain = 0
KMC1 092257Z 34006KT 08/M00 A3032 RMK A01 T00771002  RH  057%=      5-min Rain = 0
KMC1 092258Z 35006KT 08/M00 A3032 RMK A01 T00771002  RH  057%=      5-min Rain = 0
KMC1 092259Z 35007KT 08/M00 A3032 RMK A01 T00771002  RH  057%=      5-min Rain = 0
KMC1 092300Z 35007KT 08/M00 A3032 RMK A01 T00771002  RH  057%=      5-min Rain = 0
KMC1 092301Z 35008KT 08/M00 A3032 RMK A01 T00761004  RH  057%=      5-min Rain = 0
KMC1 092302Z 34007KT 08/M00 A3032 RMK A01 T00751004  RH  057%=      5-min Rain = 0
KMC1 092303Z 35007KT 08/M01 A3032 RMK A01 T00751005  RH  057%=      5-min Rain = 0
KMC1 092304Z 35007KT 07/M01 A3032 RMK A01 T00741005  RH  057%=      5-min Rain = 0
KMC1 092305Z 35006KT 07/M01 A3032 RMK A01 T00741005  RH  057%=      5-min Rain = 0
KMC1 092306Z 34007KT 07/M00 A3032 RMK A01 T00741004  RH  058%=      5-min Rain = 0
KMC1 092307Z 35006KT 07/M01 A3032 RMK A01 T00741005  RH  057%=      5-min Rain = 0
KMC1 092308Z 34004KT 07/M00 A3032 RMK A01 T00731004  RH  058%=      5-min Rain = 0
KMC1 092309Z 35006KT 07/M00 A3032 RMK A01 T00731004  RH  058%=      5-min Rain = 0
KMC1 092310Z 34007KT 07/M00 A3032 RMK A01 T00731003  RH  058%=      5-min Rain = 0
KMC1 092311Z 34007KT 07/M00 A3032 RMK A01 T00731003  RH  058%=      5-min Rain = 0
KMC1 092312Z 34006KT 07/M00 A3032 RMK A01 T00721004  RH  058%=      5-min Rain = 0
KMC1 092313Z 35006KT 07/M00 A3032 RMK A01 T00721004  RH  058%=      5-min Rain = 0
KMC1 092314Z 35006KT 07/M00 A3032 RMK A01 T00721004  RH  059%=      5-min Rain = 0
KMC1 092315Z 34005KT 07/M00 A3032 RMK A01 T00721003  RH  059%=      5-min Rain = 0
KMC1 092316Z 35004KT 07/M00 A3032 RMK A01 T00711002  RH  059%=      5-min Rain = 0
KMC1 092317Z 34004KT 07/M00 A3032 RMK A01 T00711001  RH  060%=      5-min Rain = 0
KMC1 092318Z 34003KT 07/M00 A3032 RMK A01 T00701001  RH  060%=      5-min Rain = 0
KMC1 092319Z 34004KT 07/M00 A3032 RMK A01 T00691002  RH  060%=      5-min Rain = 0
KMC1 092320Z 34006KT 07/M00 A3032 RMK A01 T00691002  RH  060%=      5-min Rain = 0
KMC1 092321Z 35006KT 07/M00 A3032 RMK A01 T00691004  RH  060%=      5-min Rain = 0
KMC1 092322Z 35007KT 07/M00 A3032 RMK A01 T00681004  RH  060%=      5-min Rain = 0
KMC1 092323Z 35006KT 07/M00 A3032 RMK A01 T00681003  RH  061%=      5-min Rain = 0
KMC1 092324Z 35006KT 07/M00 A3033 RMK A01 T00671003  RH  061%=      5-min Rain = 0
KMC1 092325Z 35005KT 07/M00 A3033 RMK A01 T00671003  RH  061%=      5-min Rain = 0
KMC1 092326Z 35004KT 07/M00 A3033 RMK A01 T00671002  RH  062%=      5-min Rain = 0
KMC1 092327Z 34005KT 07/M00 A3033 RMK A01 T00661002  RH  062%=      5-min Rain = 0
KMC1 092328Z 35005KT 07/M00 A3033 RMK A01 T00651003  RH  062%=      5-min Rain = 0
KMC1 092329Z 35005KT 07/M00 A3033 RMK A01 T00651003  RH  062%=      5-min Rain = 0
KMC1 092330Z 35006KT 07/M00 A3033 RMK A01 T00651002  RH  062%=      5-min Rain = 0
KMC1 092331Z 35004KT 06/M00 A3033 RMK A01 T00641001  RH  063%=      5-min Rain = 0
KMC1 092332Z 35004KT 06/M00 A3033 RMK A01 T00631001  RH  063%=      5-min Rain = 0
KMC1 092333Z 36003KT 06/M00 A3033 RMK A01 T00631001  RH  063%=      5-min Rain = 0
KMC1 092334Z 36006KT 06/M00 A3033 RMK A01 T00621001  RH  064%=      5-min Rain = 0
KMC1 092335Z 00004KT 06/M00 A3033 RMK A01 T00621002  RH  064%=      5-min Rain = 0
KMC1 092336Z 00004KT 06/M00 A3033 RMK A01 T00621001  RH  064%=      5-min Rain = 0
KMC1 092337Z 36004KT 06/M00 A3033 RMK A01 T00621001  RH  064%=      5-min Rain = 0
KMC1 092338Z 36004KT 06/M00 A3033 RMK A01 T00611001  RH  064%=      5-min Rain = 0
KMC1 092339Z 35004KT 06/M00 A3033 RMK A01 T00611001  RH  065%=      5-min Rain = 0
KMC1 092340Z 36004KT 06/M00 A3033 RMK A01 T00611001  RH  065%=      5-min Rain = 0
KMC1 092341Z 36004KT 06/M00 A3033 RMK A01 T00601001  RH  065%=      5-min Rain = 0
KMC1 092342Z 00004KT 06/M00 A3033 RMK A01 T00591001  RH  065%=      5-min Rain = 0
KMC1 092343Z 36004KT 06/M00 A3033 RMK A01 T00591001  RH  065%=      5-min Rain = 0
KMC1 092344Z 00004KT 06/M00 A3033 RMK A01 T00581001  RH  066%=      5-min Rain = 0
KMC1 092345Z 00004KT 06/M00 A3033 RMK A01 T00581002  RH  066%=      5-min Rain = 0
KMC1 092346Z 36004KT 06/M00 A3033 RMK A01 T00581001  RH  066%=      5-min Rain = 0
KMC1 092347Z 36005KT 06/M00 A3033 RMK A01 T00581001  RH  066%=      5-min Rain = 0
KMC1 092348Z 36004KT 06/M00 A3033 RMK A01 T00571001  RH  066%=      5-min Rain = 0
KMC1 092349Z 00004KT 06/M00 A3033 RMK A01 T00571001  RH  066%=      5-min Rain = 0
KMC1 092350Z 00004KT 06/M00 A3033 RMK A01 T00571001  RH  066%=      5-min Rain = 0
KMC1 092351Z 00004KT 06/M00 A3034 RMK A01 T00571001  RH  066%=      5-min Rain = 0
KMC1 092352Z 36004KT 06/M00 A3034 RMK A01 T00571001  RH  066%=      5-min Rain = 0
KMC1 092353Z 00004KT 06/M00 A3034 RMK A01 T00561001  RH  066%=      5-min Rain = 0
KMC1 092354Z 00004KT 06/M00 A3034 RMK A01 T00561001  RH  067%=      5-min Rain = 0
KMC1 092355Z 00003KT 06/M00 A3034 RMK A01 T00551001  RH  067%=      5-min Rain = 0
KMC1 092356Z 00004KT 06/M00 A3034 RMK A01 T00551001  RH  067%=      5-min Rain = 0
KMC1 092357Z 00004KT 06/M00 A3034 RMK A01 T00551001  RH  067%=      5-min Rain = 0
KMC1 092358Z 00004KT 05/M00 A3034 RMK A01 T00541001  RH  068%=      5-min Rain = 0
KMC1 092359Z 00004KT 05/M00 A3034 RMK A01 T00541001  RH  068%=      5-min Rain = 0
KMC1 100000Z 00004KT 05/00 A3034 RMK A01 T005400-0  RH  068%=      5-min Rain = 0
KMC1 100001Z 00004KT 05/00 A3034 RMK A01 T005300-0  RH  068%=      5-min Rain = 0
KMC1 100002Z 00004KT 05/00 A3034 RMK A01 T00530000  RH  069%=      5-min Rain = 0
KMC1 100003Z 00004KT 05/00 A3034 RMK A01 T00530000  RH  069%=      5-min Rain = 0
KMC1 100004Z 00004KT 05/00 A3034 RMK A01 T005200-0  RH  069%=      5-min Rain = 0
KMC1 100005Z 00004KT 05/00 A3034 RMK A01 T00520000  RH  069%=      5-min Rain = 0
KMC1 100006Z 00004KT 05/00 A3034 RMK A01 T005200-0  RH  069%=      5-min Rain = 0
KMC1 100007Z 01003KT 05/00 A3034 RMK A01 T005200-0  RH  069%=      5-min Rain = 0
KMC1 100008Z 01003KT 05/00 A3034 RMK A01 T005200-0  RH  069%=      5-min Rain = 0
KMC1 100009Z 01003KT 05/00 A3034 RMK A01 T005200-0  RH  069%=      5-min Rain = 0
KMC1 100010Z 01003KT 05/00 A3034 RMK A01 T005200-0  RH  069%=      5-min Rain = 0
KMC1 100011Z 02004KT 05/00 A3034 RMK A01 T005200-0  RH  069%=      5-min Rain = 0
KMC1 100012Z 01004KT 05/M00 A3034 RMK A01 T00521001  RH  069%=      5-min Rain = 0
KMC1 100013Z 02004KT 05/M00 A3034 RMK A01 T00511001  RH  069%=      5-min Rain = 0
KMC1 100014Z 02004KT 05/M00 A3034 RMK A01 T00501001  RH  070%=      5-min Rain = 0
KMC1 100015Z 02004KT 05/M00 A3034 RMK A01 T00501001  RH  070%=      5-min Rain = 0
KMC1 100016Z 02004KT 05/M00 A3034 RMK A01 T00491001  RH  070%=      5-min Rain = 0
KMC1 100017Z 02004KT 05/M00 A3034 RMK A01 T00481001  RH  070%=      5-min Rain = 0
KMC1 100018Z 02004KT 05/M00 A3034 RMK A01 T00481001  RH  071%=      5-min Rain = 0
KMC1 100019Z 02004KT 05/M00 A3034 RMK A01 T00471001  RH  071%=      5-min Rain = 0
KMC1 100020Z 02005KT 05/00 A3034 RMK A01 T004700-0  RH  071%=      5-min Rain = 0
KMC1 100021Z 02005KT 05/00 A3034 RMK A01 T004600-0  RH  072%=      5-min Rain = 0
KMC1 100022Z 02004KT 05/00 A3034 RMK A01 T004600-0  RH  072%=      5-min Rain = 0
KMC1 100023Z 02005KT 05/00 A3034 RMK A01 T004500-0  RH  072%=      5-min Rain = 0
KMC1 100024Z 02005KT 05/00 A3034 RMK A01 T00450000  RH  073%=      5-min Rain = 0
KMC1 100025Z 01005KT 05/00 A3034 RMK A01 T00450000  RH  073%=      5-min Rain = 0
KMC1 100026Z 01004KT 05/00 A3034 RMK A01 T00450001  RH  073%=      5-min Rain = 0
KMC1 100027Z 02004KT 05/00 A3034 RMK A01 T00450000  RH  073%=      5-min Rain = 0
KMC1 100028Z 01005KT 05/00 A3034 RMK A01 T00450001  RH  073%=      5-min Rain = 0
KMC1 100029Z 01005KT 05/00 A3034 RMK A01 T00450001  RH  073%=      5-min Rain = 0
KMC1 100030Z 02005KT 05/00 A3034 RMK A01 T00450001  RH  073%=      5-min Rain = 0
KMC1 100031Z 01005KT 05/00 A3034 RMK A01 T00450001  RH  073%=      5-min Rain = 0
KMC1 100032Z 01005KT 05/00 A3034 RMK A01 T00450001  RH  073%=      5-min Rain = 0
KMC1 100033Z 01005KT 05/00 A3034 RMK A01 T00450001  RH  073%=      5-min Rain = 0
KMC1 100034Z 02005KT 05/00 A3034 RMK A01 T00450001  RH  073%=      5-min Rain = 0
KMC1 100035Z 01005KT 05/00 A3034 RMK A01 T00450001  RH  073%=      5-min Rain = 0
KMC1 100036Z 01004KT 05/00 A3035 RMK A01 T00450002  RH  073%=      5-min Rain = 0
KMC1 100037Z 02004KT 04/00 A3035 RMK A01 T00440002  RH  074%=      5-min Rain = 0
KMC1 100038Z 01004KT 05/00 A3035 RMK A01 T00450002  RH  074%=      5-min Rain = 0
KMC1 100039Z 01005KT 05/00 A3035 RMK A01 T00450002  RH  074%=      5-min Rain = 0
KMC1 100040Z 02005KT 04/00 A3034 RMK A01 T00440002  RH  074%=      5-min Rain = 0
KMC1 100041Z 02005KT 05/00 A3034 RMK A01 T00450002  RH  074%=      5-min Rain = 0
KMC1 100042Z 01005KT 05/00 A3034 RMK A01 T00450002  RH  074%=      5-min Rain = 0
KMC1 100043Z 01004KT 04/00 A3035 RMK A01 T00440002  RH  074%=      5-min Rain = 0
KMC1 100044Z 01004KT 04/00 A3035 RMK A01 T00440002  RH  074%=      5-min Rain = 0
KMC1 100045Z 01004KT 04/00 A3035 RMK A01 T00440002  RH  074%=      5-min Rain = 0
KMC1 100046Z 01004KT 04/00 A3035 RMK A01 T00440002  RH  074%=      5-min Rain = 0
KMC1 100047Z 01004KT 04/00 A3035 RMK A01 T00440002  RH  074%=      5-min Rain = 0
KMC1 100048Z 01004KT 04/00 A3035 RMK A01 T00430002  RH  075%=      5-min Rain = 0
KMC1 100049Z 01004KT 04/00 A3035 RMK A01 T00430002  RH  075%=      5-min Rain = 0
KMC1 100050Z 01004KT 04/00 A3035 RMK A01 T00420002  RH  075%=      5-min Rain = 0
KMC1 100051Z 01004KT 04/00 A3035 RMK A01 T00430002  RH  075%=      5-min Rain = 0
KMC1 100052Z 00004KT 04/00 A3035 RMK A01 T00430002  RH  075%=      5-min Rain = 0
KMC1 100053Z 00004KT 04/00 A3035 RMK A01 T00420002  RH  075%=      5-min Rain = 0
KMC1 100054Z 01004KT 04/00 A3035 RMK A01 T00420003  RH  076%=      5-min Rain = 0
KMC1 100055Z 00003KT 04/00 A3035 RMK A01 T00420003  RH  076%=      5-min Rain = 0
KMC1 100056Z 00003KT 04/00 A3035 RMK A01 T00420003  RH  076%=      5-min Rain = 0
KMC1 100057Z 00003KT 04/00 A3035 RMK A01 T00410002  RH  076%=      5-min Rain = 0
KMC1 100058Z 00003KT 04/00 A3035 RMK A01 T00410002  RH  076%=      5-min Rain = 0
KMC1 100059Z 00003KT 04/00 A3035 RMK A01 T00410002  RH  076%=      5-min Rain = 0
KMC1 100100Z 00003KT 04/00 A3035 RMK A01 T00410003  RH  076%=      5-min Rain = 0
KMC1 100101Z 01003KT 04/00 A3035 RMK A01 T00400002  RH  076%=      5-min Rain = 0
KMC1 100102Z 01003KT 04/00 A3035 RMK A01 T00400002  RH  076%=      5-min Rain = 0
KMC1 100103Z 01003KT 04/00 A3035 RMK A01 T00400002  RH  076%=      5-min Rain = 0
KMC1 100104Z 01003KT 04/00 A3035 RMK A01 T00390002  RH  077%=      5-min Rain = 0
KMC1 100105Z 01003KT 04/00 A3035 RMK A01 T00390002  RH  077%=      5-min Rain = 0
KMC1 100106Z 01002KT 04/00 A3035 RMK A01 T00390002  RH  077%=      5-min Rain = 0
KMC1 100107Z 01002KT 04/00 A3035 RMK A01 T00380001  RH  077%=      5-min Rain = 0
KMC1 100108Z 01003KT 04/00 A3035 RMK A01 T00380001  RH  077%=      5-min Rain = 0
KMC1 100109Z 01003KT 04/00 A3035 RMK A01 T00370002  RH  077%=      5-min Rain = 0
KMC1 100110Z 01003KT 04/00 A3036 RMK A01 T00370001  RH  077%=      5-min Rain = 0
KMC1 100111Z 00002KT 04/00 A3036 RMK A01 T00370001  RH  078%=      5-min Rain = 0
KMC1 100112Z 00003KT 04/00 A3036 RMK A01 T00360001  RH  078%=      5-min Rain = 0
KMC1 100113Z 00002KT 04/00 A3036 RMK A01 T00360001  RH  078%=      5-min Rain = 0
KMC1 100114Z 36003KT 04/00 A3036 RMK A01 T00360001  RH  078%=      5-min Rain = 0
KMC1 100115Z 00003KT 04/00 A3036 RMK A01 T00360001  RH  078%=      5-min Rain = 0
KMC1 100116Z 00003KT 04/00 A3036 RMK A01 T00360002  RH  078%=      5-min Rain = 0
KMC1 100117Z 00003KT 04/00 A3036 RMK A01 T00360002  RH  078%=      5-min Rain = 0
KMC1 100118Z 00003KT 04/00 A3036 RMK A01 T00360002  RH  078%=      5-min Rain = 0
KMC1 100119Z 00003KT 04/00 A3036 RMK A01 T00360002  RH  078%=      5-min Rain = 0
KMC1 100120Z 00004KT 04/00 A3036 RMK A01 T00360002  RH  079%=      5-min Rain = 0
KMC1 100121Z 00004KT 04/00 A3036 RMK A01 T00360002  RH  079%=      5-min Rain = 0
KMC1 100122Z 00004KT 04/00 A3036 RMK A01 T00360002  RH  079%=      5-min Rain = 0
KMC1 100123Z 01004KT 04/00 A3036 RMK A01 T00350002  RH  079%=      5-min Rain = 0
KMC1 100124Z 00004KT 04/00 A3036 RMK A01 T00350002  RH  079%=      5-min Rain = 0
KMC1 100125Z 00003KT 04/00 A3036 RMK A01 T00350003  RH  079%=      5-min Rain = 0
KMC1 100126Z 00003KT 03/00 A3036 RMK A01 T00340002  RH  079%=      5-min Rain = 0
KMC1 100127Z 00003KT 04/00 A3036 RMK A01 T00350003  RH  080%=      5-min Rain = 0
KMC1 100128Z 00004KT 03/00 A3036 RMK A01 T00340003  RH  080%=      5-min Rain = 0
KMC1 100129Z 00004KT 03/00 A3036 RMK A01 T00340002  RH  080%=      5-min Rain = 0
KMC1 100130Z 00004KT 03/00 A3036 RMK A01 T00340003  RH  080%=      5-min Rain = 0
KMC1 100131Z 01004KT 03/00 A3036 RMK A01 T00340003  RH  080%=      5-min Rain = 0
KMC1 100132Z 01003KT 03/00 A3036 RMK A01 T00340002  RH  080%=      5-min Rain = 0
KMC1 100133Z 01004KT 03/00 A3036 RMK A01 T00340002  RH  080%=      5-min Rain = 0
KMC1 100134Z 01003KT 03/00 A3036 RMK A01 T00330002  RH  080%=      5-min Rain = 0
KMC1 100135Z 01003KT 03/00 A3036 RMK A01 T00330002  RH  080%=      5-min Rain = 0
KMC1 100136Z 01003KT 03/00 A3036 RMK A01 T00330003  RH  081%=      5-min Rain = 0
KMC1 100137Z 01003KT 03/00 A3036 RMK A01 T00330002  RH  081%=      5-min Rain = 0
KMC1 100138Z 01003KT 03/00 A3037 RMK A01 T00320002  RH  081%=      5-min Rain = 0
KMC1 100139Z 01003KT 03/00 A3037 RMK A01 T00320002  RH  081%=      5-min Rain = 0
KMC1 100140Z 01003KT 03/00 A3037 RMK A01 T00320002  RH  081%=      5-min Rain = 0
KMC1 100141Z 01003KT 03/00 A3037 RMK A01 T00310002  RH  081%=      5-min Rain = 0
KMC1 100142Z 01003KT 03/00 A3037 RMK A01 T00310002  RH  081%=      5-min Rain = 0
KMC1 100143Z 01003KT 03/00 A3037 RMK A01 T00310001  RH  081%=      5-min Rain = 0
KMC1 100144Z 01003KT 03/00 A3037 RMK A01 T00300001  RH  081%=      5-min Rain = 0
KMC1 100145Z 01003KT 03/00 A3037 RMK A01 T00290001  RH  081%=      5-min Rain = 0
KMC1 100146Z 01004KT 03/00 A3037 RMK A01 T00290001  RH  082%=      5-min Rain = 0
KMC1 100147Z 01003KT 03/00 A3037 RMK A01 T00290001  RH  082%=      5-min Rain = 0
KMC1 100148Z 01004KT 03/00 A3037 RMK A01 T00280001  RH  082%=      5-min Rain = 0
KMC1 100149Z 01004KT 03/00 A3037 RMK A01 T00280000  RH  082%=      5-min Rain = 0
KMC1 100150Z 01004KT 03/00 A3037 RMK A01 T00270001  RH  083%=      5-min Rain = 0
KMC1 100151Z 01004KT 03/00 A3037 RMK A01 T00270000  RH  083%=      5-min Rain = 0
KMC1 100152Z 01004KT 03/00 A3037 RMK A01 T00270000  RH  083%=      5-min Rain = 0
KMC1 100153Z 01004KT 03/00 A3037 RMK A01 T00260000  RH  083%=      5-min Rain = 0
KMC1 100154Z 01004KT 03/00 A3037 RMK A01 T00260000  RH  083%=      5-min Rain = 0
KMC1 100155Z 01004KT 03/00 A3037 RMK A01 T00260000  RH  083%=      5-min Rain = 0
KMC1 100156Z 01004KT 03/00 A3037 RMK A01 T00260000  RH  083%=      5-min Rain = 0
KMC1 100157Z 01004KT 03/00 A3037 RMK A01 T002500-0  RH  083%=      5-min Rain = 0
KMC1 100158Z 01004KT 03/00 A3037 RMK A01 T002500-0  RH  083%=      5-min Rain = 0
KMC1 100159Z 01004KT 02/M00 A3037 RMK A01 T00241001  RH  083%=      5-min Rain = 0
KMC1 100200Z 01004KT 02/M00 A3037 RMK A01 T00241001  RH  084%=      5-min Rain = 0
KMC1 100201Z 01004KT 02/M00 A3037 RMK A01 T00231001  RH  084%=      5-min Rain = 0
KMC1 100202Z 02004KT 02/00 A3037 RMK A01 T002300-0  RH  084%=      5-min Rain = 0
KMC1 100203Z 02004KT 02/M00 A3037 RMK A01 T00231001  RH  084%=      5-min Rain = 0
KMC1 100204Z 01004KT 02/M00 A3037 RMK A01 T00221001  RH  084%=      5-min Rain = 0
KMC1 100205Z 01004KT 02/M00 A3037 RMK A01 T00221001  RH  085%=      5-min Rain = 0
KMC1 100206Z 02004KT 02/M00 A3037 RMK A01 T00221001  RH  085%=      5-min Rain = 0
KMC1 100207Z 01004KT 02/M00 A3037 RMK A01 T00211001  RH  085%=      5-min Rain = 0
KMC1 100208Z 01004KT 02/M00 A3037 RMK A01 T00211002  RH  085%=      5-min Rain = 0
KMC1 100209Z 01004KT 02/M00 A3037 RMK A01 T00201002  RH  085%=      5-min Rain = 0
KMC1 100210Z 01004KT 02/M00 A3037 RMK A01 T00201002  RH  086%=      5-min Rain = 0
KMC1 100211Z 01004KT 02/M00 A3037 RMK A01 T00191002  RH  086%=      5-min Rain = 0
KMC1 100212Z 01004KT 02/M00 A3037 RMK A01 T00191002  RH  086%=      5-min Rain = 0
KMC1 100213Z 01005KT 02/M00 A3037 RMK A01 T00191001  RH  087%=      5-min Rain = 0
KMC1 100214Z 01004KT 02/M00 A3037 RMK A01 T00191001  RH  087%=      5-min Rain = 0
KMC1 100215Z 01004KT 02/M00 A3037 RMK A01 T00191001  RH  087%=      5-min Rain = 0
KMC1 100216Z 01004KT 02/00 A3037 RMK A01 T001900-0  RH  087%=      5-min Rain = 0
KMC1 100217Z 00004KT 02/00 A3037 RMK A01 T00200000  RH  087%=      5-min Rain = 0
KMC1 100218Z 01004KT 02/00 A3037 RMK A01 T00200000  RH  086%=      5-min Rain = 0
KMC1 100219Z 01004KT 02/00 A3037 RMK A01 T002000-0  RH  086%=      5-min Rain = 0
KMC1 100220Z 01004KT 02/00 A3037 RMK A01 T002000-0  RH  086%=      5-min Rain = 0
KMC1 100221Z 01004KT 02/00 A3037 RMK A01 T002000-0  RH  086%=      5-min Rain = 0
KMC1 100222Z 01004KT 02/00 A3037 RMK A01 T00210000  RH  086%=      5-min Rain = 0
KMC1 100223Z 01004KT 02/M00 A3037 RMK A01 T00201001  RH  086%=      5-min Rain = 0
KMC1 100224Z 01004KT 02/M00 A3037 RMK A01 T00201001  RH  086%=      5-min Rain = 0
KMC1 100225Z 01004KT 02/M00 A3037 RMK A01 T00191001  RH  086%=      5-min Rain = 0
KMC1 100226Z 01004KT 02/M00 A3037 RMK A01 T00191002  RH  086%=      5-min Rain = 0
KMC1 100227Z 01004KT 02/M00 A3037 RMK A01 T00181002  RH  087%=      5-min Rain = 0
KMC1 100228Z 01004KT 02/M00 A3037 RMK A01 T00181001  RH  087%=      5-min Rain = 0
KMC1 100229Z 01004KT 02/M00 A3037 RMK A01 T00181001  RH  087%=      5-min Rain = 0
KMC1 100230Z 01004KT 02/M00 A3037 RMK A01 T00181001  RH  087%=      5-min Rain = 0
KMC1 100231Z 01004KT 02/M00 A3037 RMK A01 T00181001  RH  087%=      5-min Rain = 0
KMC1 100232Z 01004KT 02/M00 A3037 RMK A01 T00181001  RH  088%=      5-min Rain = 0
KMC1 100233Z 01003KT 02/M00 A3037 RMK A01 T00171001  RH  087%=      5-min Rain = 0
KMC1 100234Z 01003KT 02/M00 A3037 RMK A01 T00171002  RH  087%=      5-min Rain = 0
KMC1 100235Z 01003KT 02/M00 A3037 RMK A01 T00161002  RH  087%=      5-min Rain = 0
KMC1 100236Z 01003KT 02/M00 A3037 RMK A01 T00151003  RH  087%=      5-min Rain = 0
KMC1 100237Z 01003KT 02/M00 A3037 RMK A01 T00151003  RH  088%=      5-min Rain = 0
KMC1 100238Z 01003KT 01/M00 A3037 RMK A01 T00141004  RH  088%=      5-min Rain = 0
KMC1 100239Z 01003KT 01/M00 A3037 RMK A01 T00141004  RH  088%=      5-min Rain = 0
KMC1 100240Z 01003KT 01/M01 A3037 RMK A01 T00131005  RH  088%=      5-min Rain = 0
KMC1 100241Z 01003KT 01/M01 A3037 RMK A01 T00121005  RH  088%=      5-min Rain = 0
KMC1 100242Z 01003KT 01/M01 A3037 RMK A01 T00111005  RH  089%=      5-min Rain = 0
KMC1 100243Z 01003KT 01/M01 A3037 RMK A01 T00111005  RH  089%=      5-min Rain = 0
KMC1 100244Z 01003KT 01/M00 A3037 RMK A01 T00111004  RH  090%=      5-min Rain = 0
KMC1 100245Z 01003KT 01/M00 A3037 RMK A01 T00111004  RH  090%=      5-min Rain = 0
KMC1 100246Z 01003KT 01/M00 A3037 RMK A01 T00111003  RH  090%=      5-min Rain = 0
KMC1 100247Z 00003KT 01/M00 A3037 RMK A01 T00111003  RH  091%=      5-min Rain = 0
KMC1 100248Z 01003KT 01/M00 A3037 RMK A01 T00111003  RH  091%=      5-min Rain = 0
KMC1 100249Z 01003KT 01/M00 A3037 RMK A01 T00111003  RH  091%=      5-min Rain = 0
KMC1 100250Z 01003KT 01/M00 A3037 RMK A01 T00111003  RH  090%=      5-min Rain = 0
KMC1 100251Z 01003KT 01/M00 A3037 RMK A01 T00111003  RH  090%=      5-min Rain = 0
KMC1 100252Z 01003KT 01/M00 A3037 RMK A01 T00111003  RH  090%=      5-min Rain = 0
KMC1 100253Z 01003KT 01/M00 A3037 RMK A01 T00111003  RH  090%=      5-min Rain = 0
KMC1 100254Z 01003KT 01/M00 A3037 RMK A01 T00111004  RH  090%=      5-min Rain = 0
KMC1 100255Z 01003KT 01/M00 A3037 RMK A01 T00101004  RH  090%=      5-min Rain = 0
KMC1 100256Z 01003KT 01/M00 A3037 RMK A01 T00101004  RH  090%=      5-min Rain = 0
KMC1 100257Z 01003KT 01/M00 A3037 RMK A01 T00091004  RH  091%=      5-min Rain = 0
KMC1 100258Z 01003KT 01/M00 A3037 RMK A01 T00091004  RH  091%=      5-min Rain = 0
KMC1 100259Z 01003KT 01/M00 A3037 RMK A01 T00091004  RH  091%=      5-min Rain = 0
KMC1 100300Z 00003KT 01/M00 A3037 RMK A01 T00091004  RH  091%=      5-min Rain = 0
KMC1 100301Z 00003KT 01/M00 A3037 RMK A01 T00081004  RH  091%=      5-min Rain = 0
KMC1 100302Z 00003KT 01/M00 A3037 RMK A01 T00081004  RH  092%=      5-min Rain = 0
KMC1 100303Z 00003KT 01/M00 A3037 RMK A01 T00081004  RH  092%=      5-min Rain = 0
KMC1 100304Z 00003KT 01/M00 A3037 RMK A01 T00081004  RH  092%=      5-min Rain = 0
KMC1 100305Z 00003KT 01/M00 A3038 RMK A01 T00091003  RH  092%=      5-min Rain = 0
KMC1 100306Z 00003KT 01/M00 A3038 RMK A01 T00091003  RH  092%=      5-min Rain = 0
KMC1 100307Z 35003KT 01/M00 A3038 RMK A01 T00091004  RH  092%=      5-min Rain = 0
KMC1 100308Z 35004KT 01/M00 A3038 RMK A01 T00091003  RH  092%=      5-min Rain = 0
KMC1 100309Z 36004KT 01/M00 A3038 RMK A01 T00081003  RH  092%=      5-min Rain = 0
KMC1 100310Z 36004KT 01/M00 A3038 RMK A01 T00081003  RH  092%=      5-min Rain = 0
KMC1 100311Z 36004KT 01/M00 A3038 RMK A01 T00081002  RH  093%=      5-min Rain = 0
KMC1 100312Z 36004KT 01/M00 A3038 RMK A01 T00091002  RH  093%=      5-min Rain = 0
KMC1 100313Z 35004KT 01/M00 A3038 RMK A01 T00091002  RH  093%=      5-min Rain = 0
KMC1 100314Z 35003KT 01/M00 A3038 RMK A01 T00091002  RH  093%=      5-min Rain = 0
KMC1 100315Z 35003KT 01/M00 A3038 RMK A01 T00101001  RH  093%=      5-min Rain = 0
KMC1 100316Z 34003KT 01/M00 A3038 RMK A01 T00091001  RH  093%=      5-min Rain = 0
KMC1 100317Z 34003KT 01/M00 A3038 RMK A01 T00101001  RH  092%=      5-min Rain = 0
KMC1 100318Z 34003KT 01/M00 A3038 RMK A01 T00091002  RH  092%=      5-min Rain = 0
KMC1 100319Z 34002KT 01/M00 A3038 RMK A01 T00091002  RH  092%=      5-min Rain = 0
KMC1 100320Z 34002KT 01/M00 A3038 RMK A01 T00081004  RH  092%=      5-min Rain = 0
KMC1 100321Z 34002KT 01/M01 A3038 RMK A01 T00061007  RH  091%=      5-min Rain = 0
KMC1 100322Z 34002KT 00/M01 A3038 RMK A01 T00041009  RH  091%=      5-min Rain = 0
KMC1 100323Z 33002KT 00/M01 A3039 RMK A01 T00021011  RH  091%=      5-min Rain = 0
KMC1 100324Z 33002KT 00/M01 A3039 RMK A01 T00011012  RH  091%=      5-min Rain = 0
KMC1 100325Z 33002KT M00/M01 A3039 RMK A01 T10011012  RH  092%=      5-min Rain = 0
KMC1 100326Z 33002KT M00/M01 A3039 RMK A01 T10021013  RH  092%=      5-min Rain = 0
KMC1 100327Z 34002KT M00/M01 A3039 RMK A01 T10031013  RH  093%=      5-min Rain = 0
KMC1 100328Z 34002KT M00/M01 A3039 RMK A01 T10031013  RH  093%=      5-min Rain = 0
KMC1 100329Z 34002KT M00/M01 A3039 RMK A01 T10031013  RH  094%=      5-min Rain = 0
KMC1 100330Z 33002KT M00/M01 A3039 RMK A01 T10041012  RH  094%=      5-min Rain = 0
KMC1 100331Z 33002KT M00/M01 A3039 RMK A01 T10041011  RH  095%=      5-min Rain = 0
KMC1 100332Z 33002KT M00/M01 A3039 RMK A01 T10041011  RH  095%=      5-min Rain = 0
KMC1 100333Z 33002KT M00/M01 A3039 RMK A01 T10041010  RH  096%=      5-min Rain = 0
KMC1 100334Z 32002KT M00/M01 A3039 RMK A01 T10041010  RH  096%=      5-min Rain = 0
KMC1 100335Z 31001KT M00/M01 A3039 RMK A01 T10041009  RH  096%=      5-min Rain = 0
KMC1 100336Z 31001KT M00/M01 A3039 RMK A01 T10041009  RH  096%=      5-min Rain = 0
KMC1 100337Z 29001KT M01/M01 A3039 RMK A01 T10051010  RH  096%=      5-min Rain = 0
KMC1 100338Z 28001KT M01/M01 A3039 RMK A01 T10051011  RH  096%=      5-min Rain = 0
KMC1 100339Z 28001KT M01/M01 A3039 RMK A01 T10061011  RH  096%=      5-min Rain = 0
KMC1 100340Z 28001KT M01/M01 A3039 RMK A01 T10071012  RH  096%=      5-min Rain = 0
KMC1 100341Z 28001KT M01/M01 A3039 RMK A01 T10071012  RH  096%=      5-min Rain = 0
KMC1 100342Z 30001KT M01/M01 A3039 RMK A01 T10071012  RH  097%=      5-min Rain = 0
KMC1 100343Z 30001KT M01/M01 A3039 RMK A01 T10071011  RH  097%=      5-min Rain = 0
KMC1 100344Z 32001KT M01/M01 A3039 RMK A01 T10061010  RH  097%=      5-min Rain = 0
KMC1 100345Z 32002KT M01/M01 A3039 RMK A01 T10061009  RH  098%=      5-min Rain = 0
KMC1 100346Z 33002KT M01/M01 A3039 RMK A01 T10061009  RH  098%=      5-min Rain = 0
KMC1 100347Z 33002KT M01/M01 A3039 RMK A01 T10051008  RH  098%=      5-min Rain = 0
KMC1 100348Z 33001KT M01/M01 A3039 RMK A01 T10051008  RH  098%=      5-min Rain = 0
KMC1 100349Z 34001KT M01/M01 A3039 RMK A01 T10051007  RH  098%=      5-min Rain = 0
KMC1 100350Z 33001KT M01/M01 A3039 RMK A01 T10051008  RH  098%=      5-min Rain = 0
KMC1 100351Z 32001KT M01/M01 A3039 RMK A01 T10051007  RH  098%=      5-min Rain = 0
KMC1 100352Z 31001KT M01/M01 A3039 RMK A01 T10051008  RH  098%=      5-min Rain = 0
KMC1 100353Z 30001KT M01/M01 A3039 RMK A01 T10061008  RH  098%=      5-min Rain = 0
KMC1 100354Z 30000KT M01/M01 A3039 RMK A01 T10071009  RH  098%=      5-min Rain = 0
KMC1 100355Z 30000KT M01/M01 A3039 RMK A01 T10071011  RH  098%=      5-min Rain = 0
KMC1 100356Z 29000KT M01/M01 A3039 RMK A01 T10081011  RH  098%=      5-min Rain = 0
KMC1 100357Z 28000KT M01/M01 A3039 RMK A01 T10081011  RH  098%=      5-min Rain = 0
KMC1 100358Z 27000KT M01/M01 A3039 RMK A01 T10081011  RH  098%=      5-min Rain = 0
KMC1 100359Z 27000KT M01/M01 A3039 RMK A01 T10081011  RH  098%=      5-min Rain = 0
KMC1 100400Z 00000KT M01/M01 A3039 RMK A01 T10081010  RH  098%=      5-min Rain = 0
KMC1 100401Z 24000KT M01/M01 A3039 RMK A01 T10081010  RH  098%=      5-min Rain = 0
KMC1 100402Z 25000KT M01/M01 A3039 RMK A01 T10071010  RH  098%=      5-min Rain = 0
KMC1 100403Z 27001KT M01/M01 A3039 RMK A01 T10081010  RH  098%=      5-min Rain = 0
KMC1 100404Z 24001KT M01/M01 A3039 RMK A01 T10081010  RH  098%=      5-min Rain = 0
KMC1 100405Z 24001KT M01/M01 A3039 RMK A01 T10091011  RH  098%=      5-min Rain = 0
KMC1 100406Z 25001KT M01/M01 A3039 RMK A01 T10091012  RH  098%=      5-min Rain = 0
KMC1 100407Z 25001KT M01/M01 A3039 RMK A01 T10091012  RH  098%=      5-min Rain = 0
KMC1 100408Z 25001KT M01/M01 A3039 RMK A01 T10091012  RH  098%=      5-min Rain = 0
KMC1 100409Z 25001KT M01/M01 A3039 RMK A01 T10091012  RH  098%=      5-min Rain = 0
KMC1 100410Z 27001KT M01/M01 A304 RMK A01 T10091012  RH  098%=      5-min Rain = 0
KMC1 100411Z 27001KT M01/M01 A304 RMK A01 T10091012  RH  098%=      5-min Rain = 0
KMC1 100412Z 27001KT M01/M01 A304 RMK A01 T10091011  RH  098%=      5-min Rain = 0
KMC1 100413Z 28001KT M01/M01 A304 RMK A01 T10091011  RH  098%=      5-min Rain = 0
KMC1 100414Z 27001KT M01/M01 A304 RMK A01 T10101012  RH  098%=      5-min Rain = 0
KMC1 100415Z 28001KT M01/M01 A304 RMK A01 T10101012  RH  098%=      5-min Rain = 0
KMC1 100416Z 26001KT M01/M01 A3039 RMK A01 T10091011  RH  099%=      5-min Rain = 0
KMC1 100417Z 27001KT M01/M01 A3039 RMK A01 T10101012  RH  099%=      5-min Rain = 0
KMC1 100418Z 27001KT M01/M01 A3039 RMK A01 T10091011  RH  099%=      5-min Rain = 0
KMC1 100419Z 25001KT M01/M01 A3039 RMK A01 T10091011  RH  099%=      5-min Rain = 0
KMC1 100420Z 25001KT M01/M01 A3039 RMK A01 T10091012  RH  099%=      5-min Rain = 0
KMC1 100421Z 25001KT M01/M01 A3039 RMK A01 T10091011  RH  099%=      5-min Rain = 0
KMC1 100422Z 24002KT M01/M01 A3039 RMK A01 T10081010  RH  099%=      5-min Rain = 0
KMC1 100423Z 25002KT M01/M01 A3039 RMK A01 T10081010  RH  099%=      5-min Rain = 0
KMC1 100424Z 24002KT M01/M01 A3039 RMK A01 T10081010  RH  099%=      5-min Rain = 0
KMC1 100425Z 24002KT M01/M01 A3039 RMK A01 T10081010  RH  099%=      5-min Rain = 0
KMC1 100426Z 23001KT M01/M01 A3039 RMK A01 T10081009  RH  099%=      5-min Rain = 0
KMC1 100427Z 21002KT M01/M01 A3039 RMK A01 T10071009  RH  099%=      5-min Rain = 0
KMC1 100428Z 21002KT M01/M01 A3039 RMK A01 T10071009  RH  099%=      5-min Rain = 0
KMC1 100429Z 21002KT M01/M01 A3039 RMK A01 T10071009  RH  099%=      5-min Rain = 0
KMC1 100430Z 20002KT M01/M01 A3039 RMK A01 T10081010  RH  099%=      5-min Rain = 0
KMC1 100431Z 21002KT M01/M01 A304 RMK A01 T10081010  RH  099%=      5-min Rain = 0
KMC1 100432Z 21002KT M01/M01 A304 RMK A01 T10081010  RH  098%=      5-min Rain = 0
KMC1 100433Z 21003KT M01/M01 A304 RMK A01 T10091011  RH  098%=      5-min Rain = 0
KMC1 100434Z 22003KT M01/M01 A304 RMK A01 T10091012  RH  098%=      5-min Rain = 0
KMC1 100435Z 22003KT M01/M01 A304 RMK A01 T10101012  RH  098%=      5-min Rain = 0
KMC1 100436Z 22003KT M01/M01 A304 RMK A01 T10101013  RH  098%=      5-min Rain = 0
KMC1 100437Z 23002KT M01/M01 A304 RMK A01 T10101013  RH  098%=      5-min Rain = 0
KMC1 100438Z 23002KT M01/M01 A304 RMK A01 T10111013  RH  098%=      5-min Rain = 0
KMC1 100439Z 23003KT M01/M01 A304 RMK A01 T10101012  RH  099%=      5-min Rain = 0
KMC1 100440Z 23002KT M01/M01 A304 RMK A01 T10101012  RH  099%=      5-min Rain = 0
KMC1 100441Z 23002KT M01/M01 A304 RMK A01 T10101012  RH  099%=      5-min Rain = 0
KMC1 100442Z 23002KT M01/M01 A304 RMK A01 T10101012  RH  099%=      5-min Rain = 0
KMC1 100443Z 23002KT M01/M01 A304 RMK A01 T10101012  RH  099%=      5-min Rain = 0
KMC1 100444Z 23002KT M01/M01 A304 RMK A01 T10101012  RH  099%=      5-min Rain = 0
KMC1 100445Z 23002KT M01/M01 A304 RMK A01 T10101012  RH  099%=      5-min Rain = 0
KMC1 100446Z 24002KT M01/M01 A304 RMK A01 T10101011  RH  099%=      5-min Rain = 0
KMC1 100447Z 24002KT M01/M01 A304 RMK A01 T10091010  RH  099%=      5-min Rain = 0
KMC1 100448Z 24001KT M01/M01 A304 RMK A01 T10081009  RH  099%=      5-min Rain = 0
KMC1 100449Z 24002KT M01/M01 A3039 RMK A01 T10071008  RH  099%=      5-min Rain = 0
KMC1 100450Z 24002KT M01/M01 A3039 RMK A01 T10061007  RH  099%=      5-min Rain = 0
KMC1 100451Z 24002KT M01/M01 A3039 RMK A01 T10061007  RH  099%=      5-min Rain = 0
KMC1 100452Z 23002KT M01/M01 A3039 RMK A01 T10061007  RH  099%=      5-min Rain = 0
KMC1 100453Z 22002KT M01/M01 A3039 RMK A01 T10061007  RH  099%=      5-min Rain = 0
KMC1 100454Z 22002KT M01/M01 A3039 RMK A01 T10061007  RH  099%=      5-min Rain = 0
KMC1 100455Z 22002KT M01/M01 A3039 RMK A01 T10071008  RH  099%=      5-min Rain = 0
KMC1 100456Z 22002KT M01/M01 A3039 RMK A01 T10071008  RH  099%=      5-min Rain = 0
KMC1 100457Z 23002KT M01/M01 A3039 RMK A01 T10071009  RH  099%=      5-min Rain = 0
KMC1 100458Z 23002KT M01/M01 A3039 RMK A01 T10071009  RH  099%=      5-min Rain = 0
KMC1 100459Z 23002KT M01/M01 A3039 RMK A01 T10071009  RH  099%=      5-min Rain = 0
KMC1 100500Z 22002KT M01/M01 A3039 RMK A01 T10071008  RH  099%=      5-min Rain = 0
KMC1 100501Z 23002KT M01/M01 A3039 RMK A01 T10061008  RH  099%=      5-min Rain = 0
KMC1 100502Z 23002KT M01/M01 A3039 RMK A01 T10071008  RH  099%=      5-min Rain = 0
KMC1 100503Z 22002KT M01/M01 A3039 RMK A01 T10071009  RH  099%=      5-min Rain = 0
KMC1 100504Z 22002KT M01/M01 A3039 RMK A01 T10071009  RH  099%=      5-min Rain = 0
KMC1 100505Z 22002KT M01/M01 A3039 RMK A01 T10071009  RH  099%=      5-min Rain = 0
KMC1 100506Z 22003KT M01/M01 A3039 RMK A01 T10071009  RH  099%=      5-min Rain = 0
KMC1 100507Z 21003KT M01/M01 A3039 RMK A01 T10081010  RH  099%=      5-min Rain = 0
KMC1 100508Z 21003KT M01/M01 A3039 RMK A01 T10081010  RH  099%=      5-min Rain = 0
KMC1 100509Z 21003KT M01/M01 A3039 RMK A01 T10091011  RH  099%=      5-min Rain = 0
KMC1 100510Z 20003KT M01/M01 A3039 RMK A01 T10101013  RH  098%=      5-min Rain = 0
KMC1 100511Z 20002KT M01/M01 A3039 RMK A01 T10111014  RH  098%=      5-min Rain = 0
KMC1 100512Z 20003KT M01/M02 A3039 RMK A01 T10121015  RH  098%=      5-min Rain = 0
KMC1 100513Z 20003KT M01/M02 A3039 RMK A01 T10121015  RH  098%=      5-min Rain = 0
KMC1 100514Z 20002KT M01/M02 A3039 RMK A01 T10131015  RH  098%=      5-min Rain = 0
KMC1 100515Z 21002KT M01/M02 A3039 RMK A01 T10131016  RH  098%=      5-min Rain = 0
KMC1 100516Z 21003KT M01/M02 A3039 RMK A01 T10141016  RH  098%=      5-min Rain = 0
KMC1 100517Z 21003KT M01/M02 A3039 RMK A01 T10131015  RH  099%=      5-min Rain = 0
KMC1 100518Z 21003KT M01/M02 A3039 RMK A01 T10131015  RH  099%=      5-min Rain = 0
KMC1 100519Z 20003KT M01/M02 A3039 RMK A01 T10141016  RH  099%=      5-min Rain = 0
KMC1 100520Z 20003KT M02/M02 A3039 RMK A01 T10151017  RH  098%=      5-min Rain = 0
KMC1 100521Z 21003KT M02/M02 A3039 RMK A01 T10161018  RH  098%=      5-min Rain = 0
KMC1 100522Z 22003KT M02/M02 A3039 RMK A01 T10161018  RH  098%=      5-min Rain = 0
KMC1 100523Z 22002KT M02/M02 A3039 RMK A01 T10161018  RH  098%=      5-min Rain = 0
KMC1 100524Z 22002KT M02/M02 A3039 RMK A01 T10161018  RH  099%=      5-min Rain = 0
KMC1 100525Z 22002KT M02/M02 A3039 RMK A01 T10151017  RH  099%=      5-min Rain = 0
KMC1 100526Z 21001KT M02/M02 A304 RMK A01 T10161017  RH  099%=      5-min Rain = 0
KMC1 100527Z 21002KT M02/M02 A304 RMK A01 T10171019  RH  099%=      5-min Rain = 0
KMC1 100528Z 20002KT M02/M02 A304 RMK A01 T10181020  RH  098%=      5-min Rain = 0
KMC1 100529Z 20002KT M02/M02 A304 RMK A01 T10181020  RH  099%=      5-min Rain = 0
KMC1 100530Z 20002KT M02/M02 A304 RMK A01 T10181020  RH  099%=      5-min Rain = 0
KMC1 100531Z 20002KT M02/M02 A304 RMK A01 T10191021  RH  098%=      5-min Rain = 0
KMC1 100532Z 21002KT M02/M02 A304 RMK A01 T10201023  RH  098%=      5-min Rain = 0
KMC1 100533Z 20002KT M02/M02 A304 RMK A01 T10211024  RH  098%=      5-min Rain = 0
KMC1 100534Z 20002KT M02/M03 A304 RMK A01 T10221026  RH  098%=      5-min Rain = 0
KMC1 100535Z 20002KT M02/M03 A304 RMK A01 T10231027  RH  098%=      5-min Rain = 0
KMC1 100536Z 20002KT M02/M03 A304 RMK A01 T10241027  RH  098%=      5-min Rain = 0
KMC1 100537Z 20002KT M02/M03 A304 RMK A01 T10241028  RH  098%=      5-min Rain = 0
KMC1 100538Z 20002KT M02/M03 A304 RMK A01 T10241028  RH  098%=      5-min Rain = 0
KMC1 100539Z 21002KT M03/M03 A304 RMK A01 T10251028  RH  098%=      5-min Rain = 0
KMC1 100540Z 20002KT M03/M03 A304 RMK A01 T10251028  RH  098%=      5-min Rain = 0
KMC1 100541Z 21002KT M02/M03 A304 RMK A01 T10241027  RH  098%=      5-min Rain = 0
KMC1 100542Z 20002KT M02/M03 A304 RMK A01 T10241027  RH  098%=      5-min Rain = 0
KMC1 100543Z 20002KT M03/M03 A304 RMK A01 T10251027  RH  098%=      5-min Rain = 0
KMC1 100544Z 20002KT M03/M03 A304 RMK A01 T10251027  RH  098%=      5-min Rain = 0
KMC1 100545Z 21002KT M03/M03 A304 RMK A01 T10261028  RH  098%=      5-min Rain = 0
KMC1 100546Z 20003KT M03/M03 A304 RMK A01 T10261028  RH  098%=      5-min Rain = 0
KMC1 100547Z 20003KT M03/M03 A304 RMK A01 T10261028  RH  099%=      5-min Rain = 0
KMC1 100548Z 20003KT M03/M03 A304 RMK A01 T10261028  RH  099%=      5-min Rain = 0
KMC1 100549Z 20002KT M03/M03 A304 RMK A01 T10261028  RH  099%=      5-min Rain = 0
KMC1 100550Z 20002KT M03/M03 A304 RMK A01 T10261028  RH  099%=      5-min Rain = 0
KMC1 100551Z 20002KT M03/M03 A304 RMK A01 T10261028  RH  099%=      5-min Rain = 0
KMC1 100552Z 20003KT M03/M03 A304 RMK A01 T10261028  RH  099%=      5-min Rain = 0
KMC1 100553Z 21003KT M03/M03 A304 RMK A01 T10261028  RH  099%=      5-min Rain = 0
KMC1 100554Z 21003KT M03/M03 A304 RMK A01 T10261028  RH  099%=      5-min Rain = 0
KMC1 100555Z 21003KT M03/M03 A304 RMK A01 T10261028  RH  099%=      5-min Rain = 0
KMC1 100556Z 20003KT M03/M03 A304 RMK A01 T10261027  RH  099%=      5-min Rain = 0
KMC1 100557Z 19003KT M03/M03 A304 RMK A01 T10261027  RH  099%=      5-min Rain = 0
KMC1 100558Z 19002KT M03/M03 A304 RMK A01 T10251027  RH  099%=      5-min Rain = 0
KMC1 100559Z 19002KT M03/M03 A304 RMK A01 T10261027  RH  099%=      5-min Rain = 0

Page generated in 0.1211 seconds.